Wetterdaten: Montag, 05.04.2021
Datum Zeit Temp. Aussen Temp. o. S. Temp +5cm Feuchte Auss Luftdruck Regen Sonnenschein Regendauer Solar Windben Empfang
05.04.2021 00:00 4,9 C 3,9 C 2,3 C 84 % 1016,4 hPa 0,0 l/m 0 min 0 min 0 W/m 3,2 km/h (1 Bft) 100,00 %
05.04.2021 00:02 4,9 C 3,9 C 2,3 C 84 % 1016,3 hPa 0,0 l/m 0 min 0 min 0 W/m 6,4 km/h (2 Bft) 97,73 %
05.04.2021 00:04 4,9 C 3,9 C 2,3 C 84 % 1016,3 hPa 0,0 l/m 0 min 0 min 0 W/m 6,4 km/h (2 Bft) 100,00 %
05.04.2021 00:08 4,9 C 3,9 C 2,3 C 84 % 1016,3 hPa 0,0 l/m 0 min 0 min 0 W/m 3,2 km/h (1 Bft) 100,00 %
05.04.2021 00:10 4,8 C 3,9 C 2,3 C 84 % 1016,3 hPa 0,0 l/m 0 min 0 min 0 W/m 3,2 km/h (1 Bft) 100,00 %
05.04.2021 00:12 4,8 C 3,9 C 2,3 C 84 % 1016,3 hPa 0,0 l/m 0 min 0 min 0 W/m 3,2 km/h (1 Bft) 97,87 %
05.04.2021 00:14 4,8 C 3,9 C 2,3 C 84 % 1016,2 hPa 0,0 l/m 0 min 0 min 0 W/m 3,2 km/h (1 Bft) 100,00 %
05.04.2021 00:16 4,8 C 3,9 C 2,3 C 84 % 1016,1 hPa 0,0 l/m 0 min 0 min 0 W/m 3,2 km/h (1 Bft) 97,87 %
05.04.2021 00:18 4,7 C 3,9 C 2,3 C 84 % 1016,0 hPa 0,0 l/m 0 min 0 min 0 W/m 3,2 km/h (1 Bft) 97,87 %
05.04.2021 00:20 4,7 C 3,9 C 2,3 C 84 % 1015,9 hPa 0,0 l/m 0 min 0 min 0 W/m 6,4 km/h (2 Bft) 97,87 %
05.04.2021 00:22 4,7 C 3,9 C 2,3 C 85 % 1015,8 hPa 0,0 l/m 0 min 0 min 0 W/m 6,4 km/h (2 Bft) 100,00 %
05.04.2021 00:24 4,7 C 3,9 C 2,3 C 85 % 1015,8 hPa 0,0 l/m 0 min 0 min 0 W/m 9,7 km/h (2 Bft) 100,00 %
05.04.2021 00:26 4,7 C 3,9 C 2,3 C 85 % 1015,9 hPa 0,0 l/m 0 min 0 min 0 W/m 6,4 km/h (2 Bft) 100,00 %
05.04.2021 00:28 4,7 C 3,9 C 2,3 C 85 % 1015,9 hPa 0,0 l/m 0 min 0 min 0 W/m 3,2 km/h (1 Bft) 100,00 %
05.04.2021 00:30 4,6 C 3,9 C 2,3 C 85 % 1015,8 hPa 0,0 l/m 0 min 0 min 0 W/m 3,2 km/h (1 Bft) 100,00 %
05.04.2021 00:32 4,6 C 3,9 C 2,3 C 85 % 1015,7 hPa 0,0 l/m 0 min 0 min 0 W/m 6,4 km/h (2 Bft) 97,87 %
05.04.2021 00:34 4,6 C 3,9 C 2,3 C 85 % 1015,7 hPa 0,0 l/m 0 min 0 min 0 W/m 6,4 km/h (2 Bft) 97,83 %
05.04.2021 00:36 4,6 C 3,9 C 2,3 C 85 % 1015,7 hPa 0,0 l/m 0 min 0 min 0 W/m 6,4 km/h (2 Bft) 97,87 %
05.04.2021 00:38 4,6 C 3,9 C 2,3 C 85 % 1015,6 hPa 0,0 l/m 0 min 0 min 0 W/m 3,2 km/h (1 Bft) 95,74 %
05.04.2021 00:40 4,6 C 3,9 C 2,3 C 85 % 1015,5 hPa 0,0 l/m 0 min 0 min 0 W/m 6,4 km/h (2 Bft) 95,74 %
05.04.2021 00:42 4,6 C 3,9 C 2,3 C 85 % 1015,4 hPa 0,0 l/m 0 min 0 min 0 W/m 3,2 km/h (1 Bft) 97,87 %
05.04.2021 00:44 4,6 C 3,9 C 2,3 C 85 % 1015,5 hPa 0,0 l/m 0 min 0 min 0 W/m 12,9 km/h (3 Bft) 97,87 %
05.04.2021 00:46 4,6 C 3,9 C 2,3 C 85 % 1015,4 hPa 0,0 l/m 0 min 0 min 0 W/m 12,9 km/h (3 Bft) 95,65 %
05.04.2021 00:48 4,6 C 3,9 C 2,3 C 85 % 1015,3 hPa 0,0 l/m 0 min 0 min 0 W/m 12,9 km/h (3 Bft) 95,74 %
05.04.2021 00:50 4,6 C 3,9 C 2,3 C 85 % 1015,2 hPa 0,0 l/m 0 min 0 min 0 W/m 12,9 km/h (3 Bft) 93,62 %
05.04.2021 00:52 4,6 C 3,9 C 2,3 C 85 % 1015,0 hPa 0,0 l/m 0 min 0 min 0 W/m 12,9 km/h (3 Bft) 95,74 %
05.04.2021 00:54 4,6 C 3,9 C 2,3 C 85 % 1015,0 hPa 0,0 l/m 0 min 0 min 0 W/m 12,9 km/h (3 Bft) 95,74 %
05.04.2021 00:56 4,6 C 3,9 C 2,3 C 85 % 1014,9 hPa 0,0 l/m 0 min 0 min 0 W/m 12,9 km/h (3 Bft) 95,74 %
05.04.2021 00:58 4,6 C 3,9 C 2,3 C 85 % 1014,8 hPa 0,0 l/m 0 min 0 min 0 W/m 12,9 km/h (3 Bft) 95,65 %
05.04.2021 01:00 4,7 C 3,9 C 2,3 C 85 % 1014,8 hPa 0,0 l/m 0 min 0 min 0 W/m 12,9 km/h (3 Bft) 95,74 %
05.04.2021 01:02 4,7 C 3,9 C 2,3 C 85 % 1014,7 hPa 0,0 l/m 0 min 0 min 0 W/m 12,9 km/h (3 Bft) 93,75 %
05.04.2021 01:04 4,8 C 3,9 C 2,3 C 85 % 1014,7 hPa 0,0 l/m 0 min 0 min 0 W/m 12,9 km/h (3 Bft) 95,65 %
05.04.2021 01:06 4,8 C 3,9 C 2,3 C 85 % 1014,6 hPa 0,0 l/m 0 min 0 min 0 W/m 16,1 km/h (3 Bft) 93,75 %
05.04.2021 01:08 4,8 C 4,4 C 2,3 C 85 % 1014,6 hPa 0,0 l/m 0 min 0 min 0 W/m 12,9 km/h (3 Bft) 93,62 %
05.04.2021 01:10 4,8 C 4,4 C 2,3 C 85 % 1014,7 hPa 0,0 l/m 0 min 0 min 0 W/m 9,7 km/h (2 Bft) 95,65 %
05.04.2021 01:12 4,8 C 4,4 C 2,3 C 85 % 1014,7 hPa 0,0 l/m 0 min 0 min 0 W/m 25,7 km/h (4 Bft) 93,62 %
05.04.2021 01:14 4,9 C 4,4 C 2,3 C 85 % 1014,7 hPa 0,0 l/m 0 min 0 min 0 W/m 16,1 km/h (3 Bft) 95,74 %
05.04.2021 01:16 4,9 C 4,4 C 2,3 C 85 % 1014,7 hPa 0,0 l/m 0 min 0 min 0 W/m 6,4 km/h (2 Bft) 95,74 %
05.04.2021 01:18 4,9 C 4,4 C 2,3 C 85 % 1014,7 hPa 0,0 l/m 0 min 0 min 0 W/m 12,9 km/h (3 Bft) 95,74 %
05.04.2021 01:20 4,9 C 4,4 C 2,3 C 85 % 1014,5 hPa 0,0 l/m 0 min 0 min 0 W/m 12,9 km/h (3 Bft) 95,65 %
05.04.2021 01:22 4,9 C 4,4 C 2,3 C 85 % 1014,5 hPa 0,0 l/m 0 min 0 min 0 W/m 19,3 km/h (3 Bft) 95,74 %
05.04.2021 01:24 4,9 C 4,4 C 2,3 C 85 % 1014,4 hPa 0,0 l/m 0 min 0 min 0 W/m 6,4 km/h (2 Bft) 95,74 %
05.04.2021 01:26 4,9 C 4,4 C 2,3 C 85 % 1014,4 hPa 0,0 l/m 0 min 0 min 0 W/m 6,4 km/h (2 Bft) 97,87 %
05.04.2021 01:28 4,9 C 4,4 C 2,3 C 85 % 1014,4 hPa 0,0 l/m 0 min 0 min 0 W/m 12,9 km/h (3 Bft) 97,87 %
05.04.2021 01:30 4,9 C 4,4 C 2,3 C 85 % 1014,3 hPa 0,0 l/m 0 min 0 min 0 W/m 6,4 km/h (2 Bft) 97,87 %
05.04.2021 01:32 4,9 C 4,4 C 2,3 C 85 % 1014,4 hPa 0,0 l/m 0 min 0 min 0 W/m 9,7 km/h (2 Bft) 100,00 %
05.04.2021 01:34 4,9 C 4,4 C 2,3 C 85 % 1014,3 hPa 0,0 l/m 0 min 0 min 0 W/m 12,9 km/h (3 Bft) 100,00 %
05.04.2021 01:36 4,9 C 4,4 C 2,3 C 85 % 1014,3 hPa 0,0 l/m 0 min 0 min 0 W/m 6,4 km/h (2 Bft) 100,00 %
05.04.2021 01:38 4,9 C 4,4 C 2,3 C 85 % 1014,3 hPa 0,0 l/m 0 min 0 min 0 W/m 12,9 km/h (3 Bft) 97,87 %
05.04.2021 01:40 4,9 C 4,4 C 2,3 C 85 % 1014,2 hPa 0,0 l/m 0 min 0 min 0 W/m 12,9 km/h (3 Bft) 100,00 %
05.04.2021 01:42 4,9 C 4,4 C 2,3 C 85 % 1014,2 hPa 0,0 l/m 0 min 0 min 0 W/m 12,9 km/h (3 Bft) 97,87 %
05.04.2021 01:44 4,9 C 4,4 C 2,3 C 85 % 1014,1 hPa 0,0 l/m 0 min 0 min 0 W/m 6,4 km/h (2 Bft) 100,00 %
05.04.2021 01:46 4,9 C 4,4 C 2,3 C 85 % 1014,1 hPa 0,0 l/m 0 min 0 min 0 W/m 3,2 km/h (1 Bft) 97,87 %
05.04.2021 01:48 4,9 C 4,4 C 2,3 C 85 % 1014,2 hPa 0,0 l/m 0 min 0 min 0 W/m 16,1 km/h (3 Bft) 100,00 %
05.04.2021 01:50 4,9 C 4,4 C 2,3 C 85 % 1014,1 hPa 0,0 l/m 0 min 0 min 0 W/m 9,7 km/h (2 Bft) 97,87 %
05.04.2021 01:52 4,9 C 4,4 C 2,3 C 85 % 1014,1 hPa 0,0 l/m 0 min 0 min 0 W/m 9,7 km/h (2 Bft) 100,00 %
05.04.2021 01:54 4,9 C 4,4 C 2,3 C 86 % 1014,1 hPa 0,0 l/m 0 min 0 min 0 W/m 6,4 km/h (2 Bft) 97,87 %
05.04.2021 01:56 4,9 C 4,4 C 2,3 C 86 % 1014,1 hPa 0,0 l/m 0 min 0 min 0 W/m 12,9 km/h (3 Bft) 100,00 %
05.04.2021 01:58 5,0 C 4,4 C 2,3 C 86 % 1014,1 hPa 0,0 l/m 0 min 0 min 0 W/m 6,4 km/h (2 Bft) 95,74 %
05.04.2021 02:00 5,0 C 4,4 C 2,3 C 86 % 1014,1 hPa 0,0 l/m 0 min 0 min 0 W/m 9,7 km/h (2 Bft) 100,00 %
05.04.2021 02:02 5,0 C 4,4 C 2,3 C 86 % 1014,0 hPa 0,0 l/m 0 min 0 min 0 W/m 16,1 km/h (3 Bft) 97,87 %
05.04.2021 02:04 5,0 C 4,4 C 2,3 C 86 % 1014,0 hPa 0,0 l/m 0 min 0 min 0 W/m 16,1 km/h (3 Bft) 100,00 %
05.04.2021 02:06 5,0 C 4,4 C 2,3 C 86 % 1013,9 hPa 0,0 l/m 0 min 0 min 0 W/m 6,4 km/h (2 Bft) 100,00 %
05.04.2021 02:08 5,0 C 4,4 C 2,3 C 86 % 1013,7 hPa 0,0 l/m 0 min 0 min 0 W/m 12,9 km/h (3 Bft) 100,00 %
05.04.2021 02:10 5,0 C 4,4 C 2,8 C 86 % 1013,6 hPa 0,0 l/m 0 min 0 min 0 W/m 6,4 km/h (2 Bft) 97,87 %
05.04.2021 02:12 5,1 C 4,4 C 2,8 C 86 % 1013,6 hPa 0,0 l/m 0 min 0 min 0 W/m 9,7 km/h (2 Bft) 97,87 %
05.04.2021 02:14 5,1 C 4,4 C 2,8 C 86 % 1013,5 hPa 0,0 l/m 0 min 0 min 0 W/m 12,9 km/h (3 Bft) 100,00 %
05.04.2021 02:16 5,1 C 4,4 C 2,8 C 86 % 1013,4 hPa 0,0 l/m 0 min 0 min 0 W/m 12,9 km/h (3 Bft) 100,00 %
05.04.2021 02:18 5,2 C 4,4 C 2,8 C 86 % 1013,4 hPa 0,0 l/m 0 min 0 min 0 W/m 16,1 km/h (3 Bft) 100,00 %
05.04.2021 02:20 5,2 C 4,4 C 2,8 C 86 % 1013,3 hPa 0,0 l/m 0 min 0 min 0 W/m 16,1 km/h (3 Bft) 97,87 %
05.04.2021 02:22 5,2 C 4,4 C 2,8 C 85 % 1013,3 hPa 0,0 l/m 0 min 0 min 0 W/m 6,4 km/h (2 Bft) 97,87 %
05.04.2021 02:24 5,3 C 4,4 C 2,8 C 85 % 1013,2 hPa 0,0 l/m 0 min 0 min 0 W/m 16,1 km/h (3 Bft) 100,00 %
05.04.2021 02:26 5,3 C 5,0 C 2,8 C 85 % 1013,2 hPa 0,0 l/m 0 min 0 min 0 W/m 19,3 km/h (3 Bft) 100,00 %
05.04.2021 02:28 5,3 C 5,0 C 2,8 C 85 % 1013,0 hPa 0,0 l/m 0 min 0 min 0 W/m 25,7 km/h (4 Bft) 100,00 %
05.04.2021 02:30 5,3 C 5,0 C 2,8 C 85 % 1013,1 hPa 0,0 l/m 0 min 0 min 0 W/m 12,9 km/h (3 Bft) 100,00 %
05.04.2021 02:32 5,4 C 5,0 C 2,8 C 85 % 1013,1 hPa 0,0 l/m 0 min 0 min 0 W/m 22,5 km/h (4 Bft) 100,00 %
05.04.2021 02:34 5,4 C 5,0 C 2,8 C 85 % 1013,0 hPa 0,0 l/m 0 min 0 min 0 W/m 22,5 km/h (4 Bft) 97,87 %
05.04.2021 02:36 5,4 C 5,0 C 2,8 C 85 % 1012,9 hPa 0,0 l/m 0 min 0 min 0 W/m 19,3 km/h (3 Bft) 100,00 %
05.04.2021 02:38 5,4 C 5,0 C 2,8 C 85 % 1012,9 hPa 0,0 l/m 0 min 0 min 0 W/m 16,1 km/h (3 Bft) 100,00 %
05.04.2021 02:40 5,4 C 5,0 C 2,8 C 85 % 1012,9 hPa 0,0 l/m 0 min 0 min 0 W/m 16,1 km/h (3 Bft) 100,00 %
05.04.2021 02:42 5,4 C 5,0 C 2,8 C 85 % 1012,8 hPa 0,0 l/m 0 min 0 min 0 W/m 25,7 km/h (4 Bft) 100,00 %
05.04.2021 02:44 5,4 C 5,0 C 2,8 C 85 % 1012,7 hPa 0,0 l/m 0 min 0 min 0 W/m 25,7 km/h (4 Bft) 100,00 %
05.04.2021 02:46 5,4 C 5,0 C 2,8 C 85 % 1012,6 hPa 0,0 l/m 0 min 0 min 0 W/m 16,1 km/h (3 Bft) 100,00 %
05.04.2021 02:48 5,4 C 5,0 C 2,8 C 85 % 1012,6 hPa 0,0 l/m 0 min 0 min 0 W/m 9,7 km/h (2 Bft) 97,87 %
05.04.2021 02:50 5,4 C 5,0 C 2,8 C 85 % 1012,6 hPa 0,0 l/m 0 min 0 min 0 W/m 19,3 km/h (3 Bft) 100,00 %
05.04.2021 02:52 5,4 C 5,0 C 2,8 C 85 % 1012,5 hPa 0,0 l/m 0 min 0 min 0 W/m 9,7 km/h (2 Bft) 100,00 %
05.04.2021 02:54 5,4 C 5,0 C 2,8 C 85 % 1012,5 hPa 0,0 l/m 0 min 0 min 0 W/m 25,7 km/h (4 Bft) 100,00 %
05.04.2021 02:56 5,4 C 5,0 C 2,8 C 85 % 1012,5 hPa 0,0 l/m 0 min 0 min 0 W/m 12,9 km/h (3 Bft) 97,87 %
05.04.2021 02:58 5,4 C 5,0 C 2,8 C 85 % 1012,5 hPa 0,0 l/m 0 min 0 min 0 W/m 12,9 km/h (3 Bft) 100,00 %
05.04.2021 03:00 5,5 C 5,0 C 2,8 C 85 % 1012,4 hPa 0,0 l/m 0 min 0 min 0 W/m 25,7 km/h (4 Bft) 100,00 %
05.04.2021 03:02 5,5 C 5,0 C 2,8 C 85 % 1012,3 hPa 0,0 l/m 0 min 0 min 0 W/m 16,1 km/h (3 Bft) 100,00 %
05.04.2021 03:04 5,5 C 5,0 C 2,8 C 85 % 1012,3 hPa 0,0 l/m 0 min 0 min 0 W/m 19,3 km/h (3 Bft) 95,74 %
05.04.2021 03:06 5,5 C 5,0 C 2,8 C 85 % 1012,2 hPa 0,0 l/m 0 min 0 min 0 W/m 19,3 km/h (3 Bft) 93,62 %
05.04.2021 03:08 5,5 C 5,0 C 2,8 C 85 % 1012,3 hPa 0,0 l/m 0 min 0 min 0 W/m 12,9 km/h (3 Bft) 97,87 %
05.04.2021 03:10 5,5 C 5,0 C 2,8 C 85 % 1012,2 hPa 0,0 l/m 0 min 0 min 0 W/m 22,5 km/h (4 Bft) 97,87 %
05.04.2021 03:12 5,5 C 5,0 C 2,8 C 85 % 1012,0 hPa 0,0 l/m 0 min 0 min 0 W/m 22,5 km/h (4 Bft) 95,74 %
05.04.2021 03:14 5,5 C 5,0 C 2,8 C 85 % 1012,1 hPa 0,0 l/m 0 min 0 min 0 W/m 22,5 km/h (4 Bft) 95,65 %
05.04.2021 03:16 5,5 C 5,0 C 2,8 C 85 % 1012,0 hPa 0,0 l/m 0 min 0 min 0 W/m 19,3 km/h (3 Bft) 95,74 %
05.04.2021 03:18 5,5 C 5,0 C 2,8 C 85 % 1011,9 hPa 0,0 l/m 0 min 0 min 0 W/m 29,0 km/h (5 Bft) 97,87 %
05.04.2021 03:20 5,5 C 5,0 C 2,8 C 85 % 1011,8 hPa 0,0 l/m 0 min 0 min 0 W/m 9,7 km/h (2 Bft) 97,87 %
05.04.2021 03:22 5,5 C 5,0 C 2,8 C 85 % 1011,9 hPa 0,0 l/m 0 min 0 min 0 W/m 22,5 km/h (4 Bft) 97,87 %
05.04.2021 03:24 5,5 C 5,0 C 2,8 C 85 % 1011,9 hPa 0,0 l/m 0 min 0 min 0 W/m 16,1 km/h (3 Bft) 97,87 %
05.04.2021 03:26 5,5 C 5,0 C 2,8 C 85 % 1011,8 hPa 0,0 l/m 0 min 0 min 0 W/m 19,3 km/h (3 Bft) 95,65 %
05.04.2021 03:28 5,5 C 5,0 C 2,8 C 85 % 1011,8 hPa 0,0 l/m 0 min 0 min 0 W/m 19,3 km/h (3 Bft) 95,74 %
05.04.2021 03:30 5,5 C 5,0 C 2,8 C 85 % 1011,8 hPa 0,0 l/m 0 min 0 min 0 W/m 12,9 km/h (3 Bft) 95,74 %
05.04.2021 03:32 5,5 C 5,0 C 2,8 C 85 % 1011,6 hPa 0,0 l/m 0 min 0 min 0 W/m 9,7 km/h (2 Bft) 95,74 %
05.04.2021 03:34 5,5 C 5,0 C 2,8 C 85 % 1011,5 hPa 0,0 l/m 0 min 0 min 0 W/m 12,9 km/h (3 Bft) 95,74 %
05.04.2021 03:36 5,5 C 5,0 C 2,8 C 85 % 1011,6 hPa 0,0 l/m 0 min 0 min 0 W/m 19,3 km/h (3 Bft) 95,74 %
05.04.2021 03:38 5,5 C 5,0 C 2,8 C 85 % 1011,5 hPa 0,0 l/m 0 min 0 min 0 W/m 9,7 km/h (2 Bft) 68,09 %
05.04.2021 03:40 5,5 C 5,0 C 2,8 C 85 % 1011,4 hPa 0,0 l/m 0 min 0 min 0 W/m 12,9 km/h (3 Bft) 77,14 %
05.04.2021 03:42 5,5 C 5,0 C 2,8 C 85 % 1011,4 hPa 0,0 l/m 0 min 0 min 0 W/m 12,9 km/h (3 Bft) 91,49 %
05.04.2021 03:44 5,5 C 5,0 C 2,8 C 85 % 1011,2 hPa 0,0 l/m 0 min 0 min 0 W/m 12,9 km/h (3 Bft) 91,49 %
05.04.2021 03:46 5,5 C 5,0 C 2,8 C 85 % 1011,2 hPa 0,0 l/m 0 min 0 min 0 W/m 19,3 km/h (3 Bft) 93,62 %
05.04.2021 03:48 5,5 C 5,0 C 2,8 C 85 % 1011,2 hPa 0,0 l/m 0 min 0 min 0 W/m 9,7 km/h (2 Bft) 91,49 %
05.04.2021 03:50 5,5 C 5,0 C 2,8 C 85 % 1011,2 hPa 0,0 l/m 0 min 0 min 0 W/m 29,0 km/h (5 Bft) 95,65 %
05.04.2021 03:52 5,5 C 5,0 C 2,8 C 85 % 1011,1 hPa 0,0 l/m 0 min 0 min 0 W/m 12,9 km/h (3 Bft) 95,74 %
05.04.2021 03:54 5,6 C 5,0 C 2,8 C 85 % 1011,0 hPa 0,0 l/m 0 min 0 min 0 W/m 22,5 km/h (4 Bft) 95,74 %
05.04.2021 03:56 5,6 C 5,0 C 2,8 C 85 % 1011,0 hPa 0,0 l/m 0 min 0 min 0 W/m 19,3 km/h (3 Bft) 95,74 %
05.04.2021 03:58 5,6 C 5,0 C 2,8 C 85 % 1010,8 hPa 0,0 l/m 0 min 0 min 0 W/m 12,9 km/h (3 Bft) 95,74 %
05.04.2021 04:00 5,6 C 5,0 C 2,8 C 85 % 1010,8 hPa 0,0 l/m 0 min 0 min 0 W/m 19,3 km/h (3 Bft) 94,29 %
05.04.2021 04:02 5,6 C 5,0 C 2,8 C 85 % 1010,9 hPa 0,0 l/m 0 min 0 min 0 W/m 25,7 km/h (4 Bft) 100,00 %
05.04.2021 04:04 5,6 C 5,0 C 2,8 C 85 % 1010,8 hPa 0,0 l/m 0 min 0 min 0 W/m 22,5 km/h (4 Bft) 95,65 %
05.04.2021 04:06 5,6 C 5,0 C 2,8 C 85 % 1010,7 hPa 0,0 l/m 0 min 0 min 0 W/m 16,1 km/h (3 Bft) 98,31 %
05.04.2021 04:08 5,6 C 5,0 C 2,8 C 85 % 1010,7 hPa 0,0 l/m 0 min 0 min 0 W/m 19,3 km/h (3 Bft) 95,74 %
05.04.2021 04:10 5,6 C 5,0 C 2,8 C 85 % 1010,6 hPa 0,0 l/m 0 min 0 min 0 W/m 32,2 km/h (5 Bft) 94,29 %
05.04.2021 04:12 5,6 C 5,0 C 3,4 C 85 % 1010,6 hPa 0,0 l/m 0 min 0 min 0 W/m 16,1 km/h (3 Bft) 95,74 %
05.04.2021 04:14 5,6 C 5,0 C 3,4 C 85 % 1010,6 hPa 0,0 l/m 0 min 0 min 0 W/m 32,2 km/h (5 Bft) 95,74 %
05.04.2021 04:16 5,6 C 5,0 C 3,4 C 85 % 1010,6 hPa 0,0 l/m 0 min 0 min 0 W/m 19,3 km/h (3 Bft) 95,65 %
05.04.2021 04:18 5,7 C 5,0 C 3,4 C 85 % 1010,5 hPa 0,0 l/m 0 min 0 min 0 W/m 16,1 km/h (3 Bft) 95,74 %
05.04.2021 04:20 5,7 C 5,0 C 3,4 C 85 % 1010,5 hPa 0,0 l/m 0 min 0 min 0 W/m 22,5 km/h (4 Bft) 95,74 %
05.04.2021 04:22 5,7 C 5,0 C 3,4 C 85 % 1010,4 hPa 0,0 l/m 0 min 0 min 0 W/m 16,1 km/h (3 Bft) 91,49 %
05.04.2021 04:24 5,7 C 5,0 C 3,4 C 85 % 1010,2 hPa 0,0 l/m 0 min 0 min 0 W/m 16,1 km/h (3 Bft) 95,74 %
05.04.2021 04:26 5,7 C 5,0 C 3,4 C 85 % 1010,0 hPa 0,0 l/m 0 min 0 min 0 W/m 16,1 km/h (3 Bft) 91,49 %
05.04.2021 04:28 5,7 C 5,0 C 3,4 C 85 % 1010,0 hPa 0,0 l/m 0 min 0 min 0 W/m 29,0 km/h (5 Bft) 95,65 %
05.04.2021 04:30 5,7 C 5,0 C 3,4 C 85 % 1010,0 hPa 0,0 l/m 0 min 0 min 0 W/m 16,1 km/h (3 Bft) 95,74 %
05.04.2021 04:32 5,8 C 5,0 C 3,4 C 85 % 1009,9 hPa 0,0 l/m 0 min 0 min 0 W/m 22,5 km/h (4 Bft) 97,87 %
05.04.2021 04:34 5,8 C 5,0 C 3,4 C 85 % 1009,9 hPa 0,0 l/m 0 min 0 min 0 W/m 22,5 km/h (4 Bft) 95,74 %
05.04.2021 04:36 5,8 C 5,0 C 3,4 C 85 % 1009,7 hPa 0,0 l/m 0 min 0 min 0 W/m 16,1 km/h (3 Bft) 95,74 %
05.04.2021 04:38 5,8 C 5,0 C 3,4 C 85 % 1009,7 hPa 0,0 l/m 0 min 0 min 0 W/m 16,1 km/h (3 Bft) 95,74 %
05.04.2021 04:40 5,8 C 5,0 C 3,4 C 85 % 1009,8 hPa 0,0 l/m 0 min 0 min 0 W/m 25,7 km/h (4 Bft) 97,83 %
05.04.2021 04:42 5,8 C 5,0 C 3,4 C 85 % 1009,7 hPa 0,0 l/m 0 min 0 min 0 W/m 16,1 km/h (3 Bft) 93,62 %
05.04.2021 04:44 5,8 C 5,0 C 3,4 C 85 % 1009,9 hPa 0,0 l/m 0 min 0 min 0 W/m 16,1 km/h (3 Bft) 95,74 %
05.04.2021 04:46 5,8 C 5,0 C 3,4 C 85 % 1009,8 hPa 0,0 l/m 0 min 0 min 0 W/m 22,5 km/h (4 Bft) 95,74 %
05.04.2021 04:48 5,8 C 5,0 C 3,4 C 85 % 1009,9 hPa 0,0 l/m 0 min 0 min 0 W/m 12,9 km/h (3 Bft) 80,85 %
05.04.2021 04:50 5,8 C 5,0 C 3,4 C 85 % 1009,8 hPa 0,0 l/m 0 min 0 min 0 W/m 16,1 km/h (3 Bft) 76,60 %
05.04.2021 04:52 5,8 C 5,0 C 3,4 C 85 % 1009,9 hPa 0,0 l/m 0 min 0 min 0 W/m 16,1 km/h (3 Bft) 97,83 %
05.04.2021 04:54 5,8 C 5,0 C 3,4 C 85 % 1010,0 hPa 0,0 l/m 0 min 0 min 0 W/m 16,1 km/h (3 Bft) 97,87 %
05.04.2021 04:56 5,8 C 5,0 C 3,4 C 85 % 1009,8 hPa 0,0 l/m 0 min 0 min 0 W/m 22,5 km/h (4 Bft) 100,00 %
05.04.2021 04:58 5,8 C 5,0 C 3,4 C 85 % 1009,7 hPa 0,0 l/m 0 min 0 min 0 W/m 16,1 km/h (3 Bft) 100,00 %
05.04.2021 05:03 5,8 C 5,0 C 3,4 C 85 % 1009,6 hPa 0,0 l/m 0 min 0 min 0 W/m 19,3 km/h (3 Bft) 96,00 %
05.04.2021 05:04 5,8 C 5,0 C 3,4 C 85 % 1009,6 hPa 0,0 l/m 0 min 0 min 0 W/m 6,4 km/h (2 Bft) 100,00 %
05.04.2021 05:06 5,8 C 5,0 C 3,4 C 85 % 1009,5 hPa 0,0 l/m 0 min 0 min 0 W/m 16,1 km/h (3 Bft) 100,00 %
05.04.2021 05:08 5,8 C 5,0 C 3,4 C 85 % 1009,5 hPa 0,0 l/m 0 min 0 min 0 W/m 16,1 km/h (3 Bft) 100,00 %
05.04.2021 05:10 5,8 C 5,0 C 3,4 C 85 % 1009,5 hPa 0,0 l/m 0 min 0 min 0 W/m 19,3 km/h (3 Bft) 100,00 %
05.04.2021 05:12 5,7 C 5,0 C 3,4 C 85 % 1009,5 hPa 0,0 l/m 0 min 0 min 0 W/m 16,1 km/h (3 Bft) 95,74 %
05.04.2021 05:14 5,7 C 5,0 C 3,4 C 85 % 1009,5 hPa 0,0 l/m 0 min 0 min 0 W/m 16,1 km/h (3 Bft) 100,00 %
05.04.2021 05:16 5,7 C 5,0 C 3,4 C 85 % 1009,6 hPa 0,0 l/m 0 min 0 min 0 W/m 12,9 km/h (3 Bft) 100,00 %
05.04.2021 05:18 5,7 C 5,0 C 3,4 C 85 % 1009,5 hPa 0,0 l/m 0 min 0 min 0 W/m 32,2 km/h (5 Bft) 100,00 %
05.04.2021 05:20 5,7 C 5,0 C 3,4 C 85 % 1009,5 hPa 0,0 l/m 0 min 0 min 0 W/m 19,3 km/h (3 Bft) 100,00 %
05.04.2021 05:22 5,7 C 5,0 C 3,4 C 85 % 1009,6 hPa 0,0 l/m 0 min 0 min 0 W/m 12,9 km/h (3 Bft) 95,74 %
05.04.2021 05:24 5,7 C 5,0 C 3,4 C 85 % 1009,5 hPa 0,0 l/m 0 min 0 min 0 W/m 25,7 km/h (4 Bft) 97,87 %
05.04.2021 05:26 5,7 C 5,0 C 3,4 C 85 % 1009,5 hPa 0,0 l/m 0 min 0 min 0 W/m 12,9 km/h (3 Bft) 100,00 %
05.04.2021 05:28 5,7 C 5,0 C 3,4 C 85 % 1009,4 hPa 0,0 l/m 0 min 0 min 0 W/m 16,1 km/h (3 Bft) 97,83 %
05.04.2021 05:30 5,8 C 5,0 C 3,4 C 85 % 1009,4 hPa 0,0 l/m 0 min 0 min 0 W/m 22,5 km/h (4 Bft) 100,00 %
05.04.2021 05:32 5,8 C 5,0 C 3,4 C 85 % 1009,4 hPa 0,0 l/m 0 min 0 min 0 W/m 9,7 km/h (2 Bft) 97,87 %
05.04.2021 05:34 5,8 C 5,0 C 3,4 C 85 % 1009,3 hPa 0,0 l/m 0 min 0 min 0 W/m 12,9 km/h (3 Bft) 97,87 %
05.04.2021 05:36 5,8 C 5,0 C 3,4 C 85 % 1009,3 hPa 0,0 l/m 0 min 0 min 0 W/m 12,9 km/h (3 Bft) 97,87 %
05.04.2021 05:38 5,8 C 5,0 C 3,4 C 85 % 1009,3 hPa 0,0 l/m 0 min 0 min 0 W/m 16,1 km/h (3 Bft) 98,11 %
05.04.2021 05:40 5,8 C 5,0 C 3,4 C 85 % 1009,3 hPa 0,0 l/m 0 min 0 min 0 W/m 16,1 km/h (3 Bft) 97,87 %
05.04.2021 05:42 5,8 C 5,0 C 3,4 C 85 % 1009,2 hPa 0,0 l/m 0 min 0 min 0 W/m 16,1 km/h (3 Bft) 97,83 %
05.04.2021 05:44 5,8 C 5,0 C 3,4 C 85 % 1009,2 hPa 0,0 l/m 0 min 0 min 0 W/m 22,5 km/h (4 Bft) 97,87 %
05.04.2021 05:46 5,8 C 5,0 C 3,4 C 85 % 1009,2 hPa 0,0 l/m 0 min 0 min 0 W/m 19,3 km/h (3 Bft) 95,74 %
05.04.2021 05:48 5,8 C 5,0 C 3,4 C 85 % 1009,1 hPa 0,0 l/m 0 min 0 min 0 W/m 16,1 km/h (3 Bft) 95,74 %
05.04.2021 05:50 5,8 C 5,0 C 3,4 C 85 % 1009,0 hPa 0,0 l/m 0 min 0 min 0 W/m 19,3 km/h (3 Bft) 97,87 %
05.04.2021 05:52 5,8 C 5,0 C 3,4 C 85 % 1009,0 hPa 0,0 l/m 0 min 0 min 0 W/m 22,5 km/h (4 Bft) 97,92 %
05.04.2021 05:54 5,8 C 5,0 C 3,4 C 85 % 1008,9 hPa 0,0 l/m 0 min 0 min 0 W/m 22,5 km/h (4 Bft) 97,83 %
05.04.2021 05:56 5,8 C 5,0 C 3,4 C 85 % 1008,9 hPa 0,0 l/m 0 min 0 min 0 W/m 16,1 km/h (3 Bft) 97,92 %
05.04.2021 05:58 5,8 C 5,0 C 3,4 C 85 % 1008,8 hPa 0,0 l/m 0 min 0 min 0 W/m 16,1 km/h (3 Bft) 97,87 %
05.04.2021 06:00 5,8 C 5,0 C 3,4 C 85 % 1008,7 hPa 0,0 l/m 0 min 0 min 0 W/m 9,7 km/h (2 Bft) 97,87 %
05.04.2021 06:02 5,8 C 5,0 C 3,4 C 86 % 1008,7 hPa 0,0 l/m 0 min 0 min 0 W/m 19,3 km/h (3 Bft) 97,92 %
05.04.2021 06:04 5,8 C 5,0 C 3,4 C 86 % 1008,7 hPa 0,0 l/m 0 min 0 min 0 W/m 22,5 km/h (4 Bft) 95,74 %
05.04.2021 06:08 5,8 C 5,0 C 3,4 C 86 % 1008,6 hPa 0,0 l/m 0 min 0 min 0 W/m 22,5 km/h (4 Bft) 96,43 %
05.04.2021 06:10 5,8 C 5,0 C 3,4 C 86 % 1008,5 hPa 0,0 l/m 0 min 0 min 0 W/m 16,1 km/h (3 Bft) 97,87 %
05.04.2021 06:12 5,8 C 5,0 C 3,4 C 86 % 1008,5 hPa 0,0 l/m 0 min 0 min 0 W/m 19,3 km/h (3 Bft) 98,15 %
05.04.2021 06:14 5,8 C 5,0 C 3,4 C 86 % 1008,5 hPa 0,0 l/m 0 min 0 min 0 W/m 19,3 km/h (3 Bft) 97,92 %
05.04.2021 06:16 5,8 C 5,0 C 3,4 C 86 % 1008,5 hPa 0,0 l/m 0 min 0 min 0 W/m 16,1 km/h (3 Bft) 97,87 %
05.04.2021 06:18 5,8 C 5,6 C 3,4 C 86 % 1008,4 hPa 0,0 l/m 0 min 0 min 0 W/m 12,9 km/h (3 Bft) 100,00 %
05.04.2021 06:20 5,8 C 5,6 C 3,4 C 86 % 1008,4 hPa 0,0 l/m 0 min 0 min 0 W/m 6,4 km/h (2 Bft) 97,92 %
05.04.2021 06:22 5,8 C 5,0 C 3,4 C 86 % 1008,4 hPa 0,0 l/m 0 min 0 min 0 W/m 6,4 km/h (2 Bft) 97,92 %
05.04.2021 06:24 5,8 C 5,0 C 3,4 C 86 % 1008,4 hPa 0,0 l/m 0 min 0 min 0 W/m 12,9 km/h (3 Bft) 97,83 %
05.04.2021 06:26 5,8 C 5,0 C 3,4 C 86 % 1008,3 hPa 0,0 l/m 0 min 0 min 0 W/m 12,9 km/h (3 Bft) 100,00 %
05.04.2021 06:28 5,8 C 5,0 C 3,4 C 86 % 1008,2 hPa 0,0 l/m 0 min 0 min 0 W/m 16,1 km/h (3 Bft) 100,00 %
05.04.2021 06:30 5,8 C 5,0 C 3,4 C 87 % 1008,2 hPa 0,0 l/m 0 min 0 min 0 W/m 12,9 km/h (3 Bft) 100,00 %
05.04.2021 06:32 5,8 C 5,0 C 3,4 C 87 % 1008,1 hPa 0,0 l/m 0 min 0 min 0 W/m 12,9 km/h (3 Bft) 100,00 %
05.04.2021 06:34 5,8 C 5,0 C 3,4 C 87 % 1008,2 hPa 0,0 l/m 0 min 0 min 0 W/m 6,4 km/h (2 Bft) 100,00 %
05.04.2021 06:36 5,8 C 5,0 C 3,4 C 87 % 1008,1 hPa 0,0 l/m 0 min 0 min 0 W/m 19,3 km/h (3 Bft) 100,00 %
05.04.2021 06:38 5,8 C 5,0 C 3,4 C 87 % 1008,1 hPa 0,0 l/m 0 min 0 min 0 W/m 22,5 km/h (4 Bft) 96,55 %
05.04.2021 06:40 5,8 C 5,0 C 3,4 C 87 % 1008,0 hPa 0,0 l/m 0 min 0 min 0 W/m 25,7 km/h (4 Bft) 97,14 %
05.04.2021 06:42 5,8 C 5,0 C 3,4 C 87 % 1008,0 hPa 0,0 l/m 0 min 0 min 0 W/m 16,1 km/h (3 Bft) 97,87 %
05.04.2021 06:44 5,8 C 5,0 C 3,4 C 87 % 1008,0 hPa 0,0 l/m 0 min 0 min 0 W/m 12,9 km/h (3 Bft) 97,87 %
05.04.2021 06:46 5,8 C 5,0 C 3,4 C 87 % 1008,0 hPa 0,0 l/m 0 min 0 min 0 W/m 6,4 km/h (2 Bft) 97,87 %
05.04.2021 06:48 5,8 C 5,0 C 3,4 C 87 % 1008,1 hPa 0,0 l/m 0 min 0 min 0 W/m 6,4 km/h (2 Bft) 97,87 %
05.04.2021 06:50 5,8 C 5,0 C 3,4 C 87 % 1008,0 hPa 0,0 l/m 0 min 0 min 0 W/m 16,1 km/h (3 Bft) 97,83 %
05.04.2021 06:52 5,8 C 5,0 C 3,4 C 88 % 1007,9 hPa 0,0 l/m 0 min 0 min 0 W/m 19,3 km/h (3 Bft) 97,87 %
05.04.2021 06:54 5,8 C 5,0 C 3,4 C 88 % 1007,9 hPa 0,0 l/m 0 min 0 min 0 W/m 22,5 km/h (4 Bft) 95,74 %
05.04.2021 06:56 5,8 C 5,0 C 3,4 C 88 % 1007,9 hPa 0,0 l/m 0 min 0 min 0 W/m 19,3 km/h (3 Bft) 97,87 %
05.04.2021 06:58 5,8 C 5,0 C 3,4 C 88 % 1007,9 hPa 0,0 l/m 0 min 0 min 0 W/m 16,1 km/h (3 Bft) 93,62 %
05.04.2021 07:00 5,8 C 5,0 C 3,4 C 88 % 1007,8 hPa 0,0 l/m 0 min 0 min 0 W/m 12,9 km/h (3 Bft) 97,87 %
05.04.2021 07:02 5,8 C 5,0 C 3,4 C 88 % 1007,9 hPa 0,0 l/m 0 min 0 min 0 W/m 19,3 km/h (3 Bft) 97,83 %
05.04.2021 07:04 5,8 C 5,0 C 3,4 C 88 % 1007,9 hPa 0,0 l/m 0 min 0 min 0 W/m 16,1 km/h (3 Bft) 97,87 %
05.04.2021 07:06 5,8 C 5,0 C 3,4 C 88 % 1007,8 hPa 0,0 l/m 0 min 0 min 0 W/m 22,5 km/h (4 Bft) 97,87 %
05.04.2021 07:08 5,8 C 5,0 C 3,4 C 88 % 1007,8 hPa 0,0 l/m 0 min 0 min 0 W/m 25,7 km/h (4 Bft) 97,87 %
05.04.2021 07:10 5,8 C 5,0 C 3,4 C 88 % 1007,8 hPa 0,0 l/m 0 min 0 min 0 W/m 16,1 km/h (3 Bft) 97,87 %
05.04.2021 07:12 5,7 C 5,0 C 3,4 C 88 % 1007,6 hPa 0,0 l/m 0 min 0 min 0 W/m 16,1 km/h (3 Bft) 65,96 %
05.04.2021 07:14 5,7 C 5,0 C 3,4 C 88 % 1007,7 hPa 0,0 l/m 0 min 0 min 0 W/m 16,1 km/h (3 Bft) 88,37 %
05.04.2021 07:16 5,8 C 5,0 C 3,4 C 88 % 1007,7 hPa 0,0 l/m 0 min 0 min 0 W/m 16,1 km/h (3 Bft) 95,74 %
05.04.2021 07:18 5,7 C 5,0 C 3,4 C 88 % 1007,6 hPa 0,0 l/m 0 min 0 min 0 W/m 19,3 km/h (3 Bft) 95,74 %
05.04.2021 07:20 5,7 C 5,0 C 3,4 C 88 % 1007,6 hPa 0,0 l/m 0 min 0 min 0 W/m 19,3 km/h (3 Bft) 97,87 %
05.04.2021 07:22 5,7 C 5,0 C 3,4 C 89 % 1007,5 hPa 0,0 l/m 0 min 0 min 0 W/m 29,0 km/h (5 Bft) 97,87 %
05.04.2021 07:24 5,7 C 5,0 C 3,4 C 89 % 1007,6 hPa 0,0 l/m 0 min 0 min 0 W/m 19,3 km/h (3 Bft) 97,87 %
05.04.2021 07:26 5,7 C 5,0 C 3,4 C 89 % 1007,5 hPa 0,0 l/m 0 min 0 min 0 W/m 16,1 km/h (3 Bft) 97,83 %
05.04.2021 07:28 5,7 C 5,0 C 3,4 C 89 % 1007,4 hPa 0,0 l/m 0 min 0 min 0 W/m 16,1 km/h (3 Bft) 97,87 %
05.04.2021 07:30 5,6 C 5,0 C 3,4 C 89 % 1007,4 hPa 0,0 l/m 0 min 0 min 0 W/m 25,7 km/h (4 Bft) 100,00 %
05.04.2021 07:32 5,6 C 5,0 C 3,4 C 89 % 1007,5 hPa 0,0 l/m 0 min 0 min 0 W/m 25,7 km/h (4 Bft) 100,00 %
05.04.2021 07:34 5,6 C 5,0 C 3,4 C 89 % 1007,4 hPa 0,0 l/m 0 min 0 min 0 W/m 16,1 km/h (3 Bft) 97,87 %
05.04.2021 07:36 5,6 C 5,0 C 3,4 C 89 % 1007,5 hPa 0,0 l/m 0 min 0 min 0 W/m 22,5 km/h (4 Bft) 97,87 %
05.04.2021 07:38 5,6 C 5,0 C 3,4 C 89 % 1007,4 hPa 0,0 l/m 0 min 0 min 0 W/m 19,3 km/h (3 Bft) 100,00 %
05.04.2021 07:40 5,6 C 5,0 C 3,4 C 89 % 1007,3 hPa 0,0 l/m 0 min 0 min 4 W/m 16,1 km/h (3 Bft) 100,00 %
05.04.2021 07:42 5,6 C 5,0 C 3,4 C 89 % 1007,3 hPa 0,0 l/m 0 min 0 min 5 W/m 22,5 km/h (4 Bft) 100,00 %
05.04.2021 07:44 5,6 C 5,0 C 3,4 C 89 % 1007,3 hPa 0,0 l/m 0 min 0 min 5 W/m 12,9 km/h (3 Bft) 100,00 %
05.04.2021 07:46 5,6 C 5,0 C 3,4 C 89 % 1007,2 hPa 0,0 l/m 0 min 0 min 5 W/m 19,3 km/h (3 Bft) 97,87 %
05.04.2021 07:48 5,6 C 5,0 C 3,4 C 89 % 1007,3 hPa 0,0 l/m 0 min 0 min 5 W/m 19,3 km/h (3 Bft) 100,00 %
05.04.2021 07:50 5,5 C 5,0 C 3,4 C 89 % 1007,3 hPa 0,0 l/m 0 min 0 min 5 W/m 19,3 km/h (3 Bft) 100,00 %
05.04.2021 07:52 5,5 C 5,0 C 3,4 C 89 % 1007,2 hPa 0,0 l/m 0 min 0 min 5 W/m 22,5 km/h (4 Bft) 97,83 %
05.04.2021 07:54 5,5 C 5,0 C 3,4 C 89 % 1007,2 hPa 0,0 l/m 0 min 0 min 5 W/m 19,3 km/h (3 Bft) 100,00 %
05.04.2021 07:56 5,5 C 5,0 C 3,4 C 90 % 1007,2 hPa 0,0 l/m 0 min 0 min 6 W/m 22,5 km/h (4 Bft) 97,87 %
05.04.2021 07:58 5,5 C 5,0 C 3,4 C 90 % 1007,3 hPa 0,0 l/m 0 min 0 min 7 W/m 16,1 km/h (3 Bft) 100,00 %
05.04.2021 08:00 5,5 C 5,0 C 3,4 C 90 % 1007,2 hPa 0,0 l/m 0 min 0 min 5 W/m 16,1 km/h (3 Bft) 95,74 %
05.04.2021 08:02 5,6 C 5,0 C 3,4 C 90 % 1007,1 hPa 0,0 l/m 0 min 0 min 6 W/m 19,3 km/h (3 Bft) 100,00 %
05.04.2021 08:04 5,6 C 5,0 C 3,4 C 90 % 1007,1 hPa 0,0 l/m 0 min 0 min 7 W/m 19,3 km/h (3 Bft) 100,00 %
05.04.2021 08:06 5,6 C 5,0 C 3,4 C 90 % 1007,0 hPa 0,0 l/m 0 min 0 min 6 W/m 19,3 km/h (3 Bft) 97,87 %
05.04.2021 08:08 5,6 C 5,0 C 3,4 C 90 % 1007,0 hPa 0,0 l/m 0 min 0 min 5 W/m 16,1 km/h (3 Bft) 95,74 %
05.04.2021 08:10 5,6 C 5,0 C 3,4 C 90 % 1007,0 hPa 0,0 l/m 0 min 0 min 8 W/m 12,9 km/h (3 Bft) 95,74 %
05.04.2021 08:12 5,6 C 5,0 C 3,4 C 90 % 1007,0 hPa 0,0 l/m 0 min 0 min 9 W/m 12,9 km/h (3 Bft) 95,74 %
05.04.2021 08:14 5,6 C 5,0 C 3,4 C 90 % 1006,9 hPa 0,0 l/m 0 min 0 min 11 W/m 16,1 km/h (3 Bft) 93,48 %
05.04.2021 08:16 5,6 C 5,0 C 3,4 C 90 % 1006,9 hPa 0,0 l/m 0 min 0 min 11 W/m 12,9 km/h (3 Bft) 95,74 %
05.04.2021 08:18 5,6 C 5,0 C 3,4 C 90 % 1006,8 hPa 0,0 l/m 0 min 0 min 11 W/m 16,1 km/h (3 Bft) 95,74 %
05.04.2021 08:20 5,6 C 5,0 C 3,4 C 90 % 1006,7 hPa 0,0 l/m 0 min 0 min 12 W/m 22,5 km/h (4 Bft) 95,74 %
05.04.2021 08:22 5,6 C 5,0 C 3,4 C 90 % 1006,8 hPa 0,0 l/m 0 min 0 min 12 W/m 12,9 km/h (3 Bft) 95,74 %
05.04.2021 08:24 5,6 C 5,0 C 3,4 C 90 % 1006,8 hPa 0,0 l/m 0 min 0 min 14 W/m 16,1 km/h (3 Bft) 76,60 %
05.04.2021 08:26 5,7 C 5,6 C 3,4 C 90 % 1006,7 hPa 0,0 l/m 0 min 0 min 12 W/m 12,9 km/h (3 Bft) 73,91 %
05.04.2021 08:28 5,7 C 5,6 C 3,4 C 90 % 1006,8 hPa 0,0 l/m 0 min 0 min 12 W/m 9,7 km/h (2 Bft) 95,74 %
05.04.2021 08:30 5,7 C 5,6 C 3,9 C 90 % 1006,7 hPa 0,0 l/m 0 min 0 min 13 W/m 19,3 km/h (3 Bft) 95,74 %
05.04.2021 08:32 5,7 C 5,6 C 3,4 C 90 % 1006,6 hPa 0,0 l/m 0 min 0 min 14 W/m 25,7 km/h (4 Bft) 93,75 %
05.04.2021 08:34 5,7 C 5,6 C 3,9 C 90 % 1006,7 hPa 0,0 l/m 0 min 0 min 15 W/m 12,9 km/h (3 Bft) 95,74 %
05.04.2021 08:36 5,8 C 5,6 C 3,9 C 90 % 1006,7 hPa 0,0 l/m 0 min 0 min 18 W/m 32,2 km/h (5 Bft) 95,74 %
05.04.2021 08:38 5,8 C 5,6 C 3,9 C 90 % 1006,7 hPa 0,0 l/m 0 min 0 min 16 W/m 19,3 km/h (3 Bft) 95,74 %
05.04.2021 08:40 5,8 C 5,6 C 3,9 C 90 % 1006,7 hPa 0,0 l/m 0 min 0 min 10 W/m 16,1 km/h (3 Bft) 95,74 %
05.04.2021 08:42 5,8 C 5,6 C 3,9 C 91 % 1006,6 hPa 0,0 l/m 0 min 0 min 11 W/m 22,5 km/h (4 Bft) 95,74 %
05.04.2021 08:44 5,8 C 5,6 C 3,4 C 91 % 1006,6 hPa 0,0 l/m 0 min 2 min 12 W/m 19,3 km/h (3 Bft) 95,74 %
05.04.2021 08:46 5,8 C 5,6 C 3,4 C 91 % 1006,6 hPa 0,0 l/m 0 min 2 min 10 W/m 16,1 km/h (3 Bft) 95,74 %
05.04.2021 08:48 5,8 C 5,6 C 3,4 C 91 % 1006,5 hPa 0,0 l/m 0 min 0 min 16 W/m 16,1 km/h (3 Bft) 95,74 %
05.04.2021 08:50 5,9 C 5,6 C 3,4 C 91 % 1006,5 hPa 0,0 l/m 0 min 2 min 21 W/m 22,5 km/h (4 Bft) 95,65 %
05.04.2021 08:52 5,9 C 5,6 C 3,4 C 91 % 1006,5 hPa 0,0 l/m 0 min 2 min 29 W/m 29,0 km/h (5 Bft) 93,62 %
05.04.2021 08:54 5,9 C 5,6 C 3,9 C 91 % 1006,5 hPa 0,0 l/m 0 min 2 min 31 W/m 22,5 km/h (4 Bft) 95,74 %
05.04.2021 08:56 5,9 C 5,6 C 3,9 C 91 % 1006,4 hPa 0,0 l/m 0 min 0 min 34 W/m 16,1 km/h (3 Bft) 97,87 %
05.04.2021 08:58 5,9 C 5,6 C 3,9 C 91 % 1006,4 hPa 0,0 l/m 0 min 0 min 34 W/m 22,5 km/h (4 Bft) 95,74 %
05.04.2021 09:00 6,0 C 5,6 C 3,9 C 91 % 1006,3 hPa 0,0 l/m 0 min 0 min 28 W/m 29,0 km/h (5 Bft) 97,87 %
05.04.2021 09:02 6,0 C 5,6 C 3,9 C 91 % 1006,3 hPa 0,0 l/m 0 min 0 min 40 W/m 12,9 km/h (3 Bft) 97,87 %
05.04.2021 09:04 6,0 C 5,6 C 3,9 C 91 % 1006,3 hPa 0,0 l/m 0 min 0 min 40 W/m 29,0 km/h (5 Bft) 97,87 %
05.04.2021 09:06 6,0 C 5,6 C 3,9 C 91 % 1006,3 hPa 0,0 l/m 0 min 0 min 47 W/m 16,1 km/h (3 Bft) 97,87 %
05.04.2021 09:08 6,1 C 5,6 C 3,9 C 91 % 1006,2 hPa 0,0 l/m 0 min 0 min 47 W/m 25,7 km/h (4 Bft) 97,92 %
05.04.2021 09:10 6,1 C 5,6 C 3,9 C 92 % 1006,2 hPa 0,0 l/m 0 min 2 min 49 W/m 16,1 km/h (3 Bft) 97,87 %
05.04.2021 09:12 6,1 C 6,1 C 3,9 C 92 % 1006,2 hPa 0,0 l/m 0 min 2 min 44 W/m 16,1 km/h (3 Bft) 97,83 %
05.04.2021 09:14 6,2 C 6,1 C 3,9 C 92 % 1006,2 hPa 0,0 l/m 0 min 2 min 33 W/m 12,9 km/h (3 Bft) 97,87 %
05.04.2021 09:16 6,3 C 6,1 C 3,9 C 92 % 1006,2 hPa 0,0 l/m 0 min 2 min 39 W/m 12,9 km/h (3 Bft) 97,87 %
05.04.2021 09:18 6,3 C 6,1 C 3,9 C 92 % 1006,2 hPa 0,0 l/m 0 min 2 min 45 W/m 22,5 km/h (4 Bft) 95,74 %
05.04.2021 09:20 6,3 C 6,1 C 3,9 C 92 % 1006,1 hPa 0,0 l/m 0 min 0 min 31 W/m 12,9 km/h (3 Bft) 97,87 %
05.04.2021 09:22 6,3 C 6,1 C 3,9 C 92 % 1006,2 hPa 0,0 l/m 0 min 2 min 28 W/m 19,3 km/h (3 Bft) 95,74 %
05.04.2021 09:24 6,3 C 6,1 C 3,9 C 92 % 1006,1 hPa 0,0 l/m 0 min 0 min 22 W/m 16,1 km/h (3 Bft) 97,83 %
05.04.2021 09:26 6,3 C 6,1 C 3,9 C 92 % 1006,2 hPa 0,0 l/m 0 min 2 min 18 W/m 19,3 km/h (3 Bft) 100,00 %
05.04.2021 09:28 6,4 C 6,1 C 3,9 C 92 % 1006,2 hPa 0,0 l/m 0 min 0 min 15 W/m 16,1 km/h (3 Bft) 100,00 %
05.04.2021 09:30 6,4 C 6,1 C 3,9 C 92 % 1006,2 hPa 0,0 l/m 0 min 0 min 18 W/m 16,1 km/h (3 Bft) 100,00 %
05.04.2021 09:32 6,4 C 6,1 C 3,9 C 92 % 1006,2 hPa 0,0 l/m 0 min 2 min 15 W/m 22,5 km/h (4 Bft) 97,87 %
05.04.2021 09:34 6,4 C 6,1 C 3,9 C 92 % 1006,4 hPa 0,0 l/m 0 min 2 min 12 W/m 12,9 km/h (3 Bft) 95,74 %
05.04.2021 09:36 6,4 C 5,6 C 3,9 C 92 % 1006,4 hPa 0,0 l/m 0 min 2 min 10 W/m 16,1 km/h (3 Bft) 89,13 %
05.04.2021 09:38 6,4 C 5,6 C 3,9 C 92 % 1006,4 hPa 0,0 l/m 0 min 2 min 10 W/m 22,5 km/h (4 Bft) 97,87 %
05.04.2021 09:40 6,4 C 5,6 C 3,9 C 92 % 1006,4 hPa 0,2 l/m 0 min 2 min 7 W/m 12,9 km/h (3 Bft) 97,87 %
05.04.2021 09:42 6,3 C 5,6 C 3,4 C 92 % 1007,0 hPa 0,2 l/m 0 min 2 min 4 W/m 32,2 km/h (5 Bft) 93,62 %
05.04.2021 09:44 5,9 C 4,4 C 2,8 C 91 % 1007,0 hPa 0,2 l/m 0 min 2 min 10 W/m 45,1 km/h (6 Bft) 97,87 %
05.04.2021 09:46 5,6 C 4,4 C 2,3 C 91 % 1006,9 hPa 0,0 l/m 0 min 2 min 16 W/m 32,2 km/h (5 Bft) 95,74 %
05.04.2021 09:48 5,4 C 4,4 C 2,3 C 91 % 1006,9 hPa 0,0 l/m 0 min 2 min 17 W/m 22,5 km/h (4 Bft) 95,65 %
05.04.2021 09:50 5,3 C 4,4 C 2,3 C 91 % 1006,9 hPa 0,2 l/m 0 min 2 min 15 W/m 16,1 km/h (3 Bft) 97,87 %
05.04.2021 09:52 5,2 C 4,4 C 2,3 C 91 % 1006,9 hPa 0,0 l/m 0 min 2 min 16 W/m 16,1 km/h (3 Bft) 95,74 %
05.04.2021 09:54 5,1 C 4,4 C 2,3 C 91 % 1007,0 hPa 0,0 l/m 0 min 2 min 18 W/m 19,3 km/h (3 Bft) 97,87 %
05.04.2021 09:56 5,1 C 4,4 C 2,3 C 92 % 1007,0 hPa 0,0 l/m 0 min 2 min 20 W/m 19,3 km/h (3 Bft) 97,92 %
05.04.2021 09:58 5,1 C 4,4 C 2,3 C 92 % 1007,0 hPa 0,0 l/m 0 min 2 min 22 W/m 35,4 km/h (5 Bft) 97,87 %
05.04.2021 10:00 5,0 C 4,4 C 2,3 C 92 % 1007,0 hPa 0,0 l/m 0 min 2 min 25 W/m 9,7 km/h (2 Bft) 97,83 %
05.04.2021 10:02 5,0 C 4,4 C 2,3 C 92 % 1007,0 hPa 0,0 l/m 0 min 2 min 25 W/m 22,5 km/h (4 Bft) 97,22 %
05.04.2021 10:04 5,0 C 4,4 C 2,3 C 92 % 1007,1 hPa 0,0 l/m 0 min 2 min 25 W/m 19,3 km/h (3 Bft) 97,87 %
05.04.2021 10:06 5,0 C 4,4 C 2,8 C 92 % 1007,1 hPa 0,0 l/m 0 min 2 min 21 W/m 22,5 km/h (4 Bft) 97,87 %
05.04.2021 10:08 5,0 C 4,4 C 2,8 C 93 % 1007,2 hPa 0,0 l/m 0 min 2 min 20 W/m 16,1 km/h (3 Bft) 95,74 %
05.04.2021 10:10 5,0 C 4,4 C 2,8 C 93 % 1007,2 hPa 0,0 l/m 0 min 2 min 20 W/m 19,3 km/h (3 Bft) 97,83 %
05.04.2021 10:12 5,0 C 4,4 C 2,8 C 93 % 1007,3 hPa 0,0 l/m 0 min 2 min 31 W/m 16,1 km/h (3 Bft) 97,87 %
05.04.2021 10:14 5,0 C 4,4 C 2,8 C 93 % 1007,3 hPa 0,0 l/m 0 min 2 min 31 W/m 22,5 km/h (4 Bft) 97,87 %
05.04.2021 10:16 5,0 C 4,4 C 2,8 C 93 % 1007,3 hPa 0,2 l/m 0 min 2 min 28 W/m 12,9 km/h (3 Bft) 97,87 %
05.04.2021 10:18 5,0 C 4,4 C 2,8 C 93 % 1007,3 hPa 0,0 l/m 0 min 2 min 28 W/m 22,5 km/h (4 Bft) 97,87 %
05.04.2021 10:20 5,0 C 4,4 C 2,8 C 93 % 1007,4 hPa 0,0 l/m 0 min 2 min 33 W/m 22,5 km/h (4 Bft) 97,87 %
05.04.2021 10:22 5,0 C 4,4 C 2,8 C 93 % 1007,4 hPa 0,0 l/m 0 min 2 min 35 W/m 16,1 km/h (3 Bft) 97,87 %
05.04.2021 10:24 5,0 C 4,4 C 2,8 C 93 % 1007,5 hPa 0,0 l/m 0 min 2 min 35 W/m 25,7 km/h (4 Bft) 97,83 %
05.04.2021 10:26 4,9 C 4,4 C 2,8 C 93 % 1007,5 hPa 0,0 l/m 0 min 2 min 40 W/m 22,5 km/h (4 Bft) 97,87 %
05.04.2021 10:28 4,9 C 4,4 C 2,3 C 94 % 1007,6 hPa 0,0 l/m 0 min 2 min 43 W/m 25,7 km/h (4 Bft) 100,00 %
05.04.2021 10:30 4,9 C 4,4 C 2,3 C 94 % 1007,5 hPa 0,0 l/m 0 min 2 min 43 W/m 32,2 km/h (5 Bft) 100,00 %
05.04.2021 10:32 4,8 C 4,4 C 2,3 C 94 % 1007,5 hPa 0,0 l/m 0 min 2 min 38 W/m 16,1 km/h (3 Bft) 97,87 %
05.04.2021 10:34 4,8 C 4,4 C 2,3 C 93 % 1007,5 hPa 0,0 l/m 0 min 2 min 37 W/m 29,0 km/h (5 Bft) 100,00 %
05.04.2021 10:36 4,7 C 4,4 C 2,3 C 93 % 1007,6 hPa 0,0 l/m 0 min 2 min 41 W/m 38,6 km/h (5 Bft) 97,87 %
05.04.2021 10:38 4,7 C 4,4 C 2,3 C 93 % 1007,6 hPa 0,0 l/m 0 min 2 min 48 W/m 29,0 km/h (5 Bft) 100,00 %
05.04.2021 10:40 4,7 C 4,4 C 2,3 C 93 % 1007,7 hPa 0,0 l/m 0 min 2 min 53 W/m 19,3 km/h (3 Bft) 97,87 %
05.04.2021 10:42 4,7 C 4,4 C 2,3 C 93 % 1007,6 hPa 0,0 l/m 0 min 0 min 58 W/m 32,2 km/h (5 Bft) 100,00 %
05.04.2021 10:44 4,7 C 4,4 C 2,3 C 93 % 1007,6 hPa 0,0 l/m 0 min 0 min 72 W/m 25,7 km/h (4 Bft) 100,00 %
05.04.2021 10:46 4,7 C 4,4 C 2,3 C 93 % 1007,6 hPa 0,0 l/m 0 min 2 min 85 W/m 25,7 km/h (4 Bft) 95,65 %
05.04.2021 10:48 4,7 C 4,4 C 2,8 C 93 % 1007,7 hPa 0,0 l/m 0 min 0 min 90 W/m 12,9 km/h (3 Bft) 94,55 %
05.04.2021 10:50 4,8 C 4,4 C 2,8 C 94 % 1007,7 hPa 0,0 l/m 0 min 0 min 112 W/m 16,1 km/h (3 Bft) 97,87 %
05.04.2021 10:52 4,8 C 4,4 C 2,8 C 94 % 1007,8 hPa 0,0 l/m 0 min 2 min 101 W/m 12,9 km/h (3 Bft) 95,74 %
05.04.2021 10:54 4,8 C 4,4 C 2,8 C 94 % 1007,8 hPa 0,0 l/m 0 min 2 min 87 W/m 32,2 km/h (5 Bft) 95,74 %
05.04.2021 10:56 4,8 C 4,4 C 2,8 C 94 % 1007,9 hPa 0,2 l/m 0 min 2 min 69 W/m 22,5 km/h (4 Bft) 97,87 %
05.04.2021 10:58 4,8 C 4,4 C 2,8 C 94 % 1008,0 hPa 0,0 l/m 0 min 2 min 79 W/m 35,4 km/h (5 Bft) 97,87 %
05.04.2021 11:00 4,7 C 3,9 C 2,3 C 94 % 1008,0 hPa 0,0 l/m 0 min 2 min 82 W/m 35,4 km/h (5 Bft) 93,48 %
05.04.2021 11:02 4,5 C 3,9 C 2,3 C 94 % 1008,1 hPa 0,0 l/m 0 min 2 min 94 W/m 48,3 km/h (6 Bft) 97,92 %
05.04.2021 11:04 4,4 C 3,9 C 2,3 C 93 % 1008,2 hPa 0,0 l/m 0 min 2 min 103 W/m 41,8 km/h (6 Bft) 97,87 %
05.04.2021 11:06 4,4 C 3,9 C 2,3 C 93 % 1008,3 hPa 0,0 l/m 0 min 2 min 94 W/m 29,0 km/h (5 Bft) 97,87 %
05.04.2021 11:08 4,3 C 3,9 C 2,3 C 93 % 1008,3 hPa 0,0 l/m 0 min 2 min 82 W/m 45,1 km/h (6 Bft) 97,92 %
05.04.2021 11:10 4,3 C 3,9 C 2,3 C 93 % 1008,3 hPa 0,0 l/m 0 min 2 min 51 W/m 25,7 km/h (4 Bft) 97,83 %
05.04.2021 11:12 4,3 C 3,9 C 2,3 C 93 % 1008,5 hPa 0,0 l/m 0 min 2 min 41 W/m 29,0 km/h (5 Bft) 97,87 %
05.04.2021 11:14 4,2 C 3,9 C 1,7 C 93 % 1008,7 hPa 0,0 l/m 0 min 2 min 60 W/m 48,3 km/h (6 Bft) 93,62 %
05.04.2021 11:16 4,1 C 3,3 C 1,7 C 93 % 1008,6 hPa 0,0 l/m 0 min 2 min 80 W/m 35,4 km/h (5 Bft) 97,87 %
05.04.2021 11:18 3,9 C 3,3 C 1,7 C 93 % 1008,6 hPa 0,0 l/m 0 min 2 min 105 W/m 57,9 km/h (7 Bft) 97,87 %
05.04.2021 11:20 3,8 C 3,3 C 1,7 C 93 % 1008,6 hPa 0,0 l/m 0 min 2 min 116 W/m 38,6 km/h (5 Bft) 97,87 %
05.04.2021 11:22 3,7 C 3,3 C 1,7 C 93 % 1008,7 hPa 0,2 l/m 0 min 0 min 123 W/m 38,6 km/h (5 Bft) 97,83 %
05.04.2021 11:24 3,6 C 3,3 C 1,7 C 93 % 1008,8 hPa 0,0 l/m 0 min 0 min 103 W/m 32,2 km/h (5 Bft) 97,87 %
05.04.2021 11:26 3,6 C 3,3 C 1,7 C 93 % 1008,8 hPa 0,0 l/m 0 min 2 min 89 W/m 45,1 km/h (6 Bft) 97,87 %
05.04.2021 11:28 3,6 C 3,3 C 1,7 C 93 % 1008,9 hPa 0,0 l/m 0 min 2 min 110 W/m 41,8 km/h (6 Bft) 97,87 %
05.04.2021 11:30 3,5 C 3,3 C 1,1 C 93 % 1008,8 hPa 0,0 l/m 0 min 2 min 134 W/m 48,3 km/h (6 Bft) 97,87 %
05.04.2021 11:32 3,4 C 3,3 C 1,1 C 92 % 1008,9 hPa 0,0 l/m 0 min 2 min 141 W/m 32,2 km/h (5 Bft) 100,00 %
05.04.2021 11:34 3,3 C 3,3 C 1,1 C 92 % 1008,9 hPa 0,0 l/m 0 min 0 min 150 W/m 32,2 km/h (5 Bft) 100,00 %
05.04.2021 11:36 3,3 C 3,3 C 1,1 C 92 % 1009,0 hPa 0,0 l/m 0 min 2 min 138 W/m 38,6 km/h (5 Bft) 100,00 %
05.04.2021 11:38 3,3 C 3,3 C 1,1 C 92 % 1009,0 hPa 0,0 l/m 0 min 2 min 121 W/m 29,0 km/h (5 Bft) 100,00 %
05.04.2021 11:40 3,3 C 3,3 C 1,1 C 92 % 1009,1 hPa 0,0 l/m 0 min 0 min 103 W/m 38,6 km/h (5 Bft) 100,00 %
05.04.2021 11:42 3,2 C 3,3 C 1,1 C 92 % 1009,2 hPa 0,0 l/m 0 min 2 min 97 W/m 51,5 km/h (7 Bft) 100,00 %
05.04.2021 11:44 3,2 C 3,3 C 1,1 C 91 % 1009,2 hPa 0,0 l/m 0 min 2 min 88 W/m 48,3 km/h (6 Bft) 98,28 %
05.04.2021 11:46 3,1 C 3,3 C 1,1 C 91 % 1009,4 hPa 0,0 l/m 0 min 2 min 83 W/m 32,2 km/h (5 Bft) 100,00 %
05.04.2021 11:48 3,1 C 3,3 C 1,1 C 91 % 1009,5 hPa 0,0 l/m 0 min 2 min 82 W/m 38,6 km/h (5 Bft) 55,56 %
05.04.2021 11:50 3,1 C 2,8 C 1,1 C 90 % 1009,5 hPa 0,0 l/m 0 min 0 min 76 W/m 35,4 km/h (5 Bft) 100,00 %
05.04.2021 11:52 3,1 C 2,8 C 1,1 C 90 % 1009,4 hPa 0,0 l/m 0 min 2 min 73 W/m 38,6 km/h (5 Bft) 100,00 %
05.04.2021 11:54 3,0 C 2,8 C 1,1 C 90 % 1009,3 hPa 0,0 l/m 0 min 2 min 82 W/m 35,4 km/h (5 Bft) 100,00 %
05.04.2021 11:56 3,0 C 2,8 C 1,1 C 90 % 1009,2 hPa 0,0 l/m 0 min 0 min 107 W/m 22,5 km/h (4 Bft) 100,00 %
05.04.2021 11:58 3,0 C 2,8 C 1,1 C 90 % 1009,3 hPa 0,0 l/m 0 min 2 min 130 W/m 32,2 km/h (5 Bft) 100,00 %
05.04.2021 12:00 3,0 C 3,3 C 1,1 C 90 % 1009,4 hPa 0,0 l/m 0 min 0 min 143 W/m 35,4 km/h (5 Bft) 100,00 %
05.04.2021 12:02 3,1 C 3,3 C 1,1 C 90 % 1009,3 hPa 0,0 l/m 0 min 0 min 157 W/m 25,7 km/h (4 Bft) 97,87 %
05.04.2021 12:04 3,0 C 3,3 C 1,7 C 90 % 1009,4 hPa 0,0 l/m 0 min 0 min 163 W/m 35,4 km/h (5 Bft) 100,00 %
05.04.2021 12:08 3,1 C 3,3 C 1,7 C 89 % 1009,4 hPa 0,0 l/m 0 min 4 min 176 W/m 32,2 km/h (5 Bft) 100,00 %
05.04.2021 12:10 3,2 C 3,3 C 1,7 C 89 % 1009,5 hPa 0,0 l/m 0 min 0 min 202 W/m 25,7 km/h (4 Bft) 100,00 %
05.04.2021 12:12 3,3 C 3,9 C 1,7 C 89 % 1009,4 hPa 0,0 l/m 0 min 0 min 226 W/m 32,2 km/h (5 Bft) 100,00 %
05.04.2021 12:14 3,4 C 3,9 C 1,7 C 89 % 1009,5 hPa 0,0 l/m 0 min 2 min 249 W/m 22,5 km/h (4 Bft) 100,00 %
05.04.2021 12:16 3,4 C 3,9 C 2,3 C 89 % 1009,5 hPa 0,0 l/m 0 min 0 min 264 W/m 25,7 km/h (4 Bft) 95,74 %
05.04.2021 12:18 3,5 C 3,9 C 2,3 C 89 % 1009,5 hPa 0,0 l/m 0 min 0 min 253 W/m 25,7 km/h (4 Bft) 100,00 %
05.04.2021 12:20 3,6 C 4,4 C 2,3 C 89 % 1009,5 hPa 0,0 l/m 0 min 0 min 241 W/m 22,5 km/h (4 Bft) 97,87 %
05.04.2021 12:22 3,7 C 4,4 C 2,3 C 89 % 1009,6 hPa 0,0 l/m 0 min 0 min 243 W/m 32,2 km/h (5 Bft) 100,00 %
05.04.2021 12:24 3,8 C 4,4 C 2,3 C 89 % 1009,5 hPa 0,0 l/m 0 min 0 min 245 W/m 35,4 km/h (5 Bft) 100,00 %
05.04.2021 12:26 3,8 C 4,4 C 2,3 C 89 % 1009,6 hPa 0,0 l/m 0 min 0 min 255 W/m 29,0 km/h (5 Bft) 100,00 %
05.04.2021 12:28 3,9 C 3,9 C 2,3 C 88 % 1009,6 hPa 0,0 l/m 0 min 2 min 238 W/m 29,0 km/h (5 Bft) 100,00 %
05.04.2021 12:30 3,9 C 3,9 C 2,3 C 87 % 1009,7 hPa 0,0 l/m 0 min 2 min 239 W/m 32,2 km/h (5 Bft) 100,00 %
05.04.2021 12:32 3,9 C 4,4 C 2,3 C 86 % 1009,6 hPa 0,0 l/m 0 min 2 min 226 W/m 22,5 km/h (4 Bft) 100,00 %
05.04.2021 12:34 4,0 C 4,4 C 2,3 C 86 % 1009,5 hPa 0,0 l/m 0 min 0 min 244 W/m 19,3 km/h (3 Bft) 100,00 %
05.04.2021 12:36 4,0 C 4,4 C 2,8 C 86 % 1009,6 hPa 0,0 l/m 0 min 2 min 311 W/m 35,4 km/h (5 Bft) 100,00 %
05.04.2021 12:38 4,1 C 5,0 C 3,4 C 87 % 1009,5 hPa 0,0 l/m 2 min 0 min 386 W/m 32,2 km/h (5 Bft) 100,00 %
05.04.2021 12:40 4,3 C 5,6 C 3,9 C 86 % 1009,5 hPa 0,0 l/m 2 min 0 min 486 W/m 41,8 km/h (6 Bft) 100,00 %
05.04.2021 12:42 4,4 C 5,6 C 3,9 C 86 % 1009,5 hPa 0,0 l/m 2 min 0 min 450 W/m 35,4 km/h (5 Bft) 100,00 %
05.04.2021 12:44 4,5 C 6,1 C 3,9 C 85 % 1009,6 hPa 0,0 l/m 2 min 0 min 425 W/m 32,2 km/h (5 Bft) 97,83 %
05.04.2021 12:46 4,6 C 6,1 C 3,9 C 85 % 1009,6 hPa 0,0 l/m 2 min 0 min 462 W/m 48,3 km/h (6 Bft) 100,00 %
05.04.2021 12:48 4,7 C 6,1 C 3,9 C 84 % 1009,6 hPa 0,0 l/m 0 min 0 min 307 W/m 29,0 km/h (5 Bft) 100,00 %
05.04.2021 12:50 4,7 C 5,6 C 3,4 C 83 % 1009,8 hPa 0,0 l/m 0 min 0 min 174 W/m 48,3 km/h (6 Bft) 100,00 %
05.04.2021 12:52 4,6 C 5,0 C 2,8 C 83 % 1009,9 hPa 0,0 l/m 0 min 2 min 105 W/m 38,6 km/h (5 Bft) 100,00 %
05.04.2021 12:54 4,5 C 3,9 C 2,3 C 83 % 1010,2 hPa 0,0 l/m 0 min 2 min 77 W/m 48,3 km/h (6 Bft) 97,87 %
05.04.2021 12:56 4,1 C 2,8 C 1,1 C 83 % 1010,5 hPa 0,0 l/m 0 min 2 min 79 W/m 48,3 km/h (6 Bft) 100,00 %
05.04.2021 12:58 3,6 C 2,2 C 0,6 C 83 % 1010,5 hPa 0,0 l/m 0 min 2 min 105 W/m 54,7 km/h (7 Bft) 97,87 %
05.04.2021 13:00 3,1 C 2,2 C 0,0 C 83 % 1010,5 hPa 0,0 l/m 0 min 0 min 150 W/m 45,1 km/h (6 Bft) 97,87 %
05.04.2021 13:02 2,8 C 2,2 C 0,6 C 83 % 1010,5 hPa 0,0 l/m 0 min 2 min 185 W/m 45,1 km/h (6 Bft) 95,74 %
05.04.2021 13:04 2,6 C 2,8 C 0,6 C 84 % 1010,5 hPa 0,0 l/m 0 min 2 min 179 W/m 38,6 km/h (5 Bft) 97,87 %
05.04.2021 13:06 2,6 C 2,8 C 0,6 C 83 % 1010,5 hPa 0,0 l/m 0 min 2 min 180 W/m 25,7 km/h (4 Bft) 97,92 %
05.04.2021 13:08 2,6 C 3,3 C 1,1 C 84 % 1010,5 hPa 0,0 l/m 0 min 0 min 242 W/m 38,6 km/h (5 Bft) 97,83 %
05.04.2021 13:10 2,6 C 3,3 C 1,1 C 83 % 1010,4 hPa 0,0 l/m 0 min 0 min 280 W/m 35,4 km/h (5 Bft) 97,87 %
05.04.2021 13:12 2,7 C 3,9 C 1,1 C 83 % 1010,5 hPa 0,0 l/m 0 min 0 min 293 W/m 25,7 km/h (4 Bft) 97,87 %
05.04.2021 13:14 2,8 C 3,9 C 1,1 C 83 % 1010,4 hPa 0,0 l/m 0 min 2 min 306 W/m 45,1 km/h (6 Bft) 91,49 %
05.04.2021 13:16 2,9 C 3,9 C 1,7 C 83 % 1010,5 hPa 0,0 l/m 0 min 0 min 314 W/m 19,3 km/h (3 Bft) 97,87 %
05.04.2021 13:18 3,0 C 3,9 C 1,7 C 83 % 1010,6 hPa 0,0 l/m 0 min 0 min 322 W/m 32,2 km/h (5 Bft) 95,74 %
05.04.2021 13:20 3,0 C 3,9 C 1,7 C 82 % 1010,5 hPa 0,0 l/m 0 min 2 min 322 W/m 25,7 km/h (4 Bft) 97,83 %
05.04.2021 13:22 3,1 C 3,9 C 2,3 C 82 % 1010,5 hPa 0,0 l/m 0 min 0 min 335 W/m 25,7 km/h (4 Bft) 93,62 %
05.04.2021 13:24 3,3 C 4,4 C 2,3 C 81 % 1010,5 hPa 0,0 l/m 2 min 0 min 356 W/m 35,4 km/h (5 Bft) 97,87 %
05.04.2021 13:26 3,4 C 4,4 C 2,3 C 80 % 1010,5 hPa 0,0 l/m 2 min 0 min 367 W/m 32,2 km/h (5 Bft) 97,87 %
05.04.2021 13:28 3,5 C 5,0 C 2,8 C 80 % 1010,7 hPa 0,0 l/m 2 min 0 min 393 W/m 38,6 km/h (5 Bft) 95,74 %
05.04.2021 13:30 3,5 C 5,0 C 2,8 C 79 % 1010,7 hPa 0,0 l/m 2 min 2 min 411 W/m 41,8 km/h (6 Bft) 97,87 %
05.04.2021 13:32 3,6 C 5,0 C 2,8 C 79 % 1010,5 hPa 0,0 l/m 2 min 0 min 412 W/m 29,0 km/h (5 Bft) 93,48 %
05.04.2021 13:34 3,8 C 5,0 C 2,8 C 79 % 1010,5 hPa 0,0 l/m 2 min 0 min 456 W/m 22,5 km/h (4 Bft) 97,87 %
05.04.2021 13:36 3,8 C 5,0 C 2,8 C 78 % 1010,4 hPa 0,0 l/m 2 min 0 min 455 W/m 29,0 km/h (5 Bft) 95,74 %
05.04.2021 13:38 4,0 C 5,6 C 3,4 C 79 % 1010,5 hPa 0,0 l/m 2 min 2 min 418 W/m 16,1 km/h (3 Bft) 95,74 %
05.04.2021 13:40 4,1 C 5,6 C 3,4 C 80 % 1010,5 hPa 0,0 l/m 2 min 0 min 393 W/m 41,8 km/h (6 Bft) 95,74 %
05.04.2021 13:42 4,2 C 5,0 C 2,8 C 79 % 1010,5 hPa 0,0 l/m 2 min 2 min 385 W/m 35,4 km/h (5 Bft) 95,74 %
05.04.2021 13:44 4,3 C 5,0 C 2,8 C 79 % 1010,5 hPa 0,0 l/m 2 min 2 min 391 W/m 45,1 km/h (6 Bft) 95,65 %
05.04.2021 13:46 4,3 C 5,6 C 3,4 C 79 % 1010,6 hPa 0,0 l/m 2 min 2 min 378 W/m 29,0 km/h (5 Bft) 95,74 %
05.04.2021 13:48 4,4 C 5,6 C 3,4 C 79 % 1010,6 hPa 0,0 l/m 2 min 0 min 347 W/m 29,0 km/h (5 Bft) 96,23 %
05.04.2021 13:50 4,4 C 5,6 C 3,4 C 79 % 1010,6 hPa 0,0 l/m 0 min 0 min 328 W/m 38,6 km/h (5 Bft) 95,74 %
05.04.2021 13:52 4,4 C 5,0 C 3,4 C 78 % 1010,7 hPa 0,0 l/m 0 min 0 min 246 W/m 41,8 km/h (6 Bft) 95,74 %
05.04.2021 13:54 4,4 C 4,4 C 2,8 C 77 % 1010,8 hPa 0,0 l/m 0 min 2 min 165 W/m 51,5 km/h (7 Bft) 93,62 %
05.04.2021 13:56 4,1 C 3,9 C 1,7 C 76 % 1010,8 hPa 0,0 l/m 0 min 2 min 167 W/m 41,8 km/h (6 Bft) 95,65 %
05.04.2021 13:58 3,8 C 3,3 C 1,1 C 77 % 1010,9 hPa 0,0 l/m 0 min 2 min 172 W/m 64,4 km/h (8 Bft) 93,62 %
05.04.2021 14:00 3,4 C 2,8 C 0,6 C 78 % 1011,0 hPa 0,0 l/m 0 min 2 min 203 W/m 41,8 km/h (6 Bft) 93,62 %
05.04.2021 14:02 3,1 C 2,8 C 0,6 C 79 % 1010,9 hPa 0,0 l/m 0 min 2 min 187 W/m 32,2 km/h (5 Bft) 91,67 %
05.04.2021 14:04 2,9 C 2,8 C 0,6 C 79 % 1011,0 hPa 0,0 l/m 0 min 0 min 131 W/m 41,8 km/h (6 Bft) 95,74 %
05.04.2021 14:06 2,7 C 2,2 C 0,6 C 80 % 1011,2 hPa 0,0 l/m 0 min 0 min 120 W/m 57,9 km/h (7 Bft) 97,87 %
05.04.2021 14:08 2,5 C 2,8 C 0,6 C 80 % 1011,4 hPa 0,0 l/m 0 min 0 min 245 W/m 61,2 km/h (7 Bft) 95,74 %
05.04.2021 14:10 2,5 C 2,8 C 0,6 C 81 % 1011,3 hPa 0,0 l/m 0 min 0 min 290 W/m 45,1 km/h (6 Bft) 95,74 %
05.04.2021 14:12 2,4 C 2,8 C 0,6 C 82 % 1011,3 hPa 0,0 l/m 0 min 0 min 169 W/m 41,8 km/h (6 Bft) 95,74 %
05.04.2021 14:14 2,3 C 2,2 C 0,0 C 83 % 1011,2 hPa 0,0 l/m 0 min 0 min 164 W/m 35,4 km/h (5 Bft) 95,74 %
05.04.2021 14:16 2,1 C 2,2 C 0,0 C 84 % 1011,2 hPa 0,0 l/m 0 min 0 min 194 W/m 38,6 km/h (5 Bft) 95,74 %
05.04.2021 14:18 2,0 C 2,2 C 0,0 C 85 % 1011,2 hPa 0,0 l/m 0 min 0 min 197 W/m 38,6 km/h (5 Bft) 95,74 %
05.04.2021 14:20 2,1 C 3,9 C 0,6 C 85 % 1011,2 hPa 0,0 l/m 0 min 0 min 199 W/m 48,3 km/h (6 Bft) 95,65 %
05.04.2021 14:22 2,3 C 6,1 C 1,1 C 86 % 1011,1 hPa 0,0 l/m 2 min 0 min 354 W/m 29,0 km/h (5 Bft) 93,62 %
05.04.2021 14:24 2,5 C 7,2 C 1,1 C 86 % 1011,1 hPa 0,0 l/m 2 min 0 min 815 W/m 32,2 km/h (5 Bft) 95,74 %
05.04.2021 14:26 2,9 C 7,8 C 1,7 C 86 % 1011,1 hPa 0,0 l/m 2 min 0 min 829 W/m 32,2 km/h (5 Bft) 95,74 %
05.04.2021 14:28 3,3 C 8,9 C 2,3 C 86 % 1011,1 hPa 0,2 l/m 2 min 0 min 903 W/m 25,7 km/h (4 Bft) 95,74 %
05.04.2021 14:30 3,8 C 8,3 C 2,3 C 85 % 1011,1 hPa 0,0 l/m 2 min 0 min 960 W/m 29,0 km/h (5 Bft) 95,74 %
05.04.2021 14:32 4,0 C 8,9 C 2,8 C 84 % 1011,1 hPa 0,0 l/m 2 min 0 min 870 W/m 35,4 km/h (5 Bft) 93,62 %
05.04.2021 14:34 4,2 C 9,4 C 2,8 C 81 % 1011,2 hPa 0,0 l/m 2 min 0 min 780 W/m 38,6 km/h (5 Bft) 95,74 %
05.04.2021 14:36 4,4 C 10,0 C 3,4 C 78 % 1011,2 hPa 0,0 l/m 2 min 0 min 778 W/m 45,1 km/h (6 Bft) 95,74 %
05.04.2021 14:38 4,6 C 9,4 C 2,8 C 74 % 1011,2 hPa 0,0 l/m 2 min 0 min 777 W/m 38,6 km/h (5 Bft) 95,83 %
05.04.2021 14:40 4,7 C 8,3 C 2,8 C 72 % 1011,3 hPa 0,0 l/m 2 min 0 min 791 W/m 45,1 km/h (6 Bft) 95,74 %
05.04.2021 14:42 4,8 C 7,8 C 2,8 C 70 % 1011,2 hPa 0,0 l/m 2 min 0 min 831 W/m 45,1 km/h (6 Bft) 95,65 %
05.04.2021 14:44 4,8 C 7,8 C 2,8 C 69 % 1011,2 hPa 0,0 l/m 2 min 0 min 939 W/m 38,6 km/h (5 Bft) 95,74 %
05.04.2021 14:46 4,8 C 6,7 C 2,8 C 69 % 1011,3 hPa 0,0 l/m 2 min 0 min 594 W/m 57,9 km/h (7 Bft) 93,62 %
05.04.2021 14:48 4,7 C 5,6 C 2,3 C 69 % 1011,4 hPa 0,0 l/m 0 min 0 min 200 W/m 48,3 km/h (6 Bft) 95,74 %
05.04.2021 14:50 4,5 C 5,0 C 1,7 C 70 % 1011,5 hPa 0,0 l/m 0 min 0 min 126 W/m 57,9 km/h (7 Bft) 100,00 %
05.04.2021 14:52 4,3 C 3,9 C 1,1 C 73 % 1011,6 hPa 0,0 l/m 0 min 0 min 105 W/m 41,8 km/h (6 Bft) 97,87 %
05.04.2021 14:54 3,9 C 2,8 C 0,6 C 76 % 1011,8 hPa 0,0 l/m 0 min 0 min 99 W/m 35,4 km/h (5 Bft) 97,83 %
05.04.2021 14:56 3,4 C 2,2 C -0,5 C 78 % 1011,9 hPa 0,0 l/m 0 min 0 min 92 W/m 29,0 km/h (5 Bft) 100,00 %
05.04.2021 14:58 2,9 C 1,7 C -0,5 C 81 % 1012,0 hPa 0,0 l/m 0 min 0 min 90 W/m 41,8 km/h (6 Bft) 100,00 %
05.04.2021 15:00 2,5 C 1,7 C -1,1 C 82 % 1012,0 hPa 0,0 l/m 0 min 0 min 87 W/m 32,2 km/h (5 Bft) 100,00 %
05.04.2021 15:02 2,3 C 1,7 C -1,1 C 83 % 1012,0 hPa 0,0 l/m 0 min 0 min 124 W/m 29,0 km/h (5 Bft) 97,87 %
05.04.2021 15:04 2,1 C 1,7 C -1,1 C 84 % 1011,9 hPa 0,0 l/m 0 min 0 min 206 W/m 32,2 km/h (5 Bft) 97,87 %
05.04.2021 15:06 2,0 C 2,2 C -0,5 C 85 % 1011,8 hPa 0,0 l/m 0 min 0 min 264 W/m 32,2 km/h (5 Bft) 100,00 %
05.04.2021 15:08 1,9 C 2,2 C -0,5 C 86 % 1011,8 hPa 0,0 l/m 0 min 0 min 217 W/m 19,3 km/h (3 Bft) 100,00 %
05.04.2021 15:10 1,9 C 3,3 C 0,0 C 87 % 1011,8 hPa 0,0 l/m 0 min 0 min 242 W/m 29,0 km/h (5 Bft) 100,00 %
05.04.2021 15:12 2,0 C 6,1 C 0,6 C 88 % 1011,8 hPa 0,0 l/m 0 min 0 min 268 W/m 32,2 km/h (5 Bft) 97,87 %
05.04.2021 15:14 2,1 C 8,3 C 0,6 C 88 % 1011,8 hPa 0,0 l/m 2 min 0 min 765 W/m 29,0 km/h (5 Bft) 100,00 %
05.04.2021 15:16 2,4 C 8,9 C 1,1 C 89 % 1011,8 hPa 0,0 l/m 2 min 0 min 741 W/m 19,3 km/h (3 Bft) 100,00 %
05.04.2021 15:18 2,6 C 10,0 C 1,1 C 89 % 1011,7 hPa 0,0 l/m 2 min 0 min 734 W/m 22,5 km/h (4 Bft) 100,00 %
05.04.2021 15:20 2,9 C 9,4 C 1,1 C 89 % 1011,6 hPa 0,0 l/m 2 min 0 min 731 W/m 12,9 km/h (3 Bft) 100,00 %
05.04.2021 15:22 3,1 C 9,4 C 1,1 C 88 % 1011,6 hPa 0,0 l/m 2 min 0 min 730 W/m 22,5 km/h (4 Bft) 97,87 %
05.04.2021 15:24 3,3 C 9,4 C 1,1 C 87 % 1011,6 hPa 0,0 l/m 2 min 0 min 736 W/m 25,7 km/h (4 Bft) 97,87 %
05.04.2021 15:26 3,5 C 10,0 C 1,7 C 85 % 1011,6 hPa 0,0 l/m 2 min 0 min 724 W/m 19,3 km/h (3 Bft) 100,00 %
05.04.2021 15:28 3,8 C 10,0 C 1,7 C 82 % 1011,5 hPa 0,0 l/m 2 min 0 min 703 W/m 19,3 km/h (3 Bft) 100,00 %
05.04.2021 15:30 4,0 C 11,1 C 2,3 C 81 % 1011,5 hPa 0,0 l/m 2 min 0 min 764 W/m 29,0 km/h (5 Bft) 100,00 %
05.04.2021 15:32 4,2 C 10,0 C 2,3 C 80 % 1011,4 hPa 0,0 l/m 2 min 0 min 776 W/m 22,5 km/h (4 Bft) 100,00 %
05.04.2021 15:34 4,4 C 10,0 C 2,8 C 78 % 1011,4 hPa 0,0 l/m 2 min 0 min 630 W/m 22,5 km/h (4 Bft) 100,00 %
05.04.2021 15:36 4,6 C 10,0 C 2,8 C 75 % 1011,4 hPa 0,0 l/m 2 min 0 min 751 W/m 25,7 km/h (4 Bft) 100,00 %
05.04.2021 15:38 4,8 C 9,4 C 2,8 C 73 % 1011,3 hPa 0,0 l/m 2 min 0 min 733 W/m 29,0 km/h (5 Bft) 100,00 %
05.04.2021 15:40 4,9 C 8,3 C 2,8 C 72 % 1011,4 hPa 0,0 l/m 2 min 0 min 531 W/m 35,4 km/h (5 Bft) 100,00 %
05.04.2021 15:42 5,0 C 6,7 C 2,8 C 70 % 1011,4 hPa 0,0 l/m 0 min 0 min 187 W/m 32,2 km/h (5 Bft) 100,00 %
05.04.2021 15:44 5,0 C 6,1 C 2,8 C 68 % 1011,5 hPa 0,0 l/m 0 min 0 min 244 W/m 38,6 km/h (5 Bft) 100,00 %
05.04.2021 15:46 5,0 C 6,1 C 2,8 C 68 % 1011,5 hPa 0,0 l/m 2 min 0 min 303 W/m 25,7 km/h (4 Bft) 97,87 %
05.04.2021 15:48 5,1 C 7,8 C 3,4 C 68 % 1011,6 hPa 0,0 l/m 2 min 0 min 362 W/m 51,5 km/h (7 Bft) 100,00 %
05.04.2021 15:50 5,3 C 8,9 C 3,4 C 68 % 1011,7 hPa 0,0 l/m 2 min 0 min 831 W/m 41,8 km/h (6 Bft) 100,00 %
05.04.2021 15:52 5,4 C 8,9 C 3,4 C 69 % 1011,8 hPa 0,0 l/m 2 min 0 min 737 W/m 32,2 km/h (5 Bft) 100,00 %
05.04.2021 15:54 5,1 C 8,3 C 2,8 C 68 % 1011,7 hPa 0,0 l/m 2 min 0 min 707 W/m 48,3 km/h (6 Bft) 100,00 %
05.04.2021 15:56 5,0 C 8,3 C 2,3 C 68 % 1011,8 hPa 0,0 l/m 2 min 0 min 685 W/m 32,2 km/h (5 Bft) 100,00 %
05.04.2021 15:58 5,0 C 8,9 C 2,3 C 69 % 1011,8 hPa 0,0 l/m 2 min 0 min 665 W/m 25,7 km/h (4 Bft) 100,00 %
05.04.2021 16:00 5,0 C 9,4 C 2,3 C 70 % 1011,8 hPa 0,0 l/m 2 min 0 min 659 W/m 32,2 km/h (5 Bft) 100,00 %
05.04.2021 16:02 5,0 C 10,0 C 2,3 C 68 % 1011,8 hPa 0,0 l/m 2 min 0 min 661 W/m 38,6 km/h (5 Bft) 100,00 %
05.04.2021 16:04 5,0 C 10,0 C 2,3 C 69 % 1011,8 hPa 0,0 l/m 2 min 0 min 674 W/m 25,7 km/h (4 Bft) 100,00 %
05.04.2021 16:06 5,1 C 10,0 C 2,3 C 69 % 1011,8 hPa 0,0 l/m 2 min 0 min 750 W/m 22,5 km/h (4 Bft) 97,56 %
05.04.2021 16:08 5,1 C 7,8 C 2,8 C 69 % 1011,8 hPa 0,0 l/m 2 min 0 min 604 W/m 38,6 km/h (5 Bft) 97,87 %
05.04.2021 16:10 5,0 C 6,1 C 2,8 C 68 % 1011,9 hPa 0,0 l/m 0 min 0 min 215 W/m 38,6 km/h (5 Bft) 97,87 %
05.04.2021 16:12 4,9 C 5,0 C 2,3 C 69 % 1011,9 hPa 0,0 l/m 0 min 0 min 101 W/m 41,8 km/h (6 Bft) 95,74 %
05.04.2021 16:14 4,7 C 4,4 C 1,7 C 66 % 1011,8 hPa 0,0 l/m 0 min 0 min 81 W/m 32,2 km/h (5 Bft) 97,87 %
05.04.2021 16:16 4,5 C 4,4 C 1,7 C 66 % 1011,9 hPa 0,0 l/m 0 min 0 min 91 W/m 32,2 km/h (5 Bft) 95,65 %
05.04.2021 16:18 4,5 C 3,9 C 1,7 C 66 % 1011,8 hPa 0,0 l/m 0 min 0 min 122 W/m 32,2 km/h (5 Bft) 97,87 %
05.04.2021 16:20 4,3 C 3,9 C 1,7 C 66 % 1011,9 hPa 0,0 l/m 0 min 0 min 163 W/m 41,8 km/h (6 Bft) 95,74 %
05.04.2021 16:22 4,1 C 5,6 C 1,7 C 68 % 1012,0 hPa 0,0 l/m 0 min 0 min 177 W/m 32,2 km/h (5 Bft) 97,87 %
05.04.2021 16:24 4,1 C 7,2 C 1,7 C 69 % 1011,9 hPa 0,0 l/m 2 min 0 min 649 W/m 48,3 km/h (6 Bft) 95,74 %
05.04.2021 16:26 4,2 C 9,4 C 1,7 C 69 % 1012,0 hPa 0,0 l/m 2 min 0 min 611 W/m 35,4 km/h (5 Bft) 97,87 %
05.04.2021 16:28 4,4 C 9,4 C 2,3 C 70 % 1012,0 hPa 0,0 l/m 2 min 0 min 602 W/m 32,2 km/h (5 Bft) 97,83 %
05.04.2021 16:30 4,5 C 10,0 C 2,3 C 69 % 1012,1 hPa 0,0 l/m 2 min 0 min 596 W/m 41,8 km/h (6 Bft) 95,74 %
05.04.2021 16:32 4,5 C 10,0 C 2,8 C 69 % 1012,0 hPa 0,0 l/m 2 min 0 min 588 W/m 48,3 km/h (6 Bft) 95,74 %
05.04.2021 16:34 4,6 C 10,6 C 2,8 C 68 % 1012,1 hPa 0,0 l/m 2 min 0 min 585 W/m 25,7 km/h (4 Bft) 97,87 %
05.04.2021 16:36 4,7 C 9,4 C 2,8 C 67 % 1012,0 hPa 0,0 l/m 2 min 0 min 574 W/m 35,4 km/h (5 Bft) 97,87 %
05.04.2021 16:38 4,7 C 9,4 C 2,8 C 67 % 1012,0 hPa 0,0 l/m 2 min 0 min 573 W/m 35,4 km/h (5 Bft) 98,11 %
05.04.2021 16:40 4,7 C 9,4 C 2,8 C 68 % 1012,0 hPa 0,0 l/m 2 min 0 min 569 W/m 25,7 km/h (4 Bft) 97,87 %
05.04.2021 16:42 4,8 C 10,0 C 2,8 C 67 % 1012,0 hPa 0,0 l/m 2 min 0 min 571 W/m 32,2 km/h (5 Bft) 97,83 %
05.04.2021 16:44 4,8 C 10,0 C 2,8 C 66 % 1011,9 hPa 0,0 l/m 2 min 0 min 566 W/m 57,9 km/h (7 Bft) 95,74 %
05.04.2021 16:46 4,8 C 9,4 C 2,8 C 66 % 1011,9 hPa 0,0 l/m 2 min 0 min 563 W/m 35,4 km/h (5 Bft) 100,00 %
05.04.2021 16:48 4,8 C 9,4 C 2,8 C 65 % 1011,9 hPa 0,0 l/m 2 min 0 min 572 W/m 32,2 km/h (5 Bft) 93,62 %
05.04.2021 16:50 4,9 C 10,0 C 2,8 C 67 % 1012,0 hPa 0,0 l/m 2 min 0 min 587 W/m 22,5 km/h (4 Bft) 95,74 %
05.04.2021 16:52 5,1 C 10,6 C 3,4 C 66 % 1011,9 hPa 0,0 l/m 2 min 0 min 610 W/m 32,2 km/h (5 Bft) 93,62 %
05.04.2021 16:54 5,2 C 10,6 C 3,4 C 66 % 1012,0 hPa 0,0 l/m 2 min 0 min 330 W/m 35,4 km/h (5 Bft) 95,65 %
05.04.2021 16:56 5,3 C 8,9 C 3,4 C 65 % 1011,9 hPa 0,0 l/m 2 min 0 min 530 W/m 29,0 km/h (5 Bft) 95,74 %
05.04.2021 16:58 5,3 C 8,3 C 3,4 C 64 % 1012,1 hPa 0,0 l/m 2 min 0 min 285 W/m 38,6 km/h (5 Bft) 95,74 %
05.04.2021 17:00 5,3 C 7,2 C 3,4 C 64 % 1012,0 hPa 0,0 l/m 2 min 0 min 271 W/m 32,2 km/h (5 Bft) 93,62 %
05.04.2021 17:02 5,2 C 7,8 C 2,8 C 64 % 1012,2 hPa 0,0 l/m 2 min 0 min 273 W/m 38,6 km/h (5 Bft) 95,74 %
05.04.2021 17:04 5,0 C 6,1 C 2,3 C 65 % 1012,2 hPa 0,0 l/m 2 min 0 min 274 W/m 41,8 km/h (6 Bft) 97,87 %
05.04.2021 17:06 4,6 C 4,4 C 1,7 C 67 % 1012,5 hPa 0,0 l/m 0 min 0 min 160 W/m 38,6 km/h (5 Bft) 97,83 %
05.04.2021 17:08 4,1 C 4,4 C 1,1 C 72 % 1012,5 hPa 0,0 l/m 0 min 0 min 121 W/m 25,7 km/h (4 Bft) 97,87 %
05.04.2021 17:10 3,6 C 4,4 C 0,6 C 75 % 1012,4 hPa 0,0 l/m 0 min 0 min 169 W/m 25,7 km/h (4 Bft) 95,74 %
05.04.2021 17:12 3,4 C 3,9 C 0,6 C 77 % 1012,5 hPa 0,0 l/m 0 min 0 min 198 W/m 29,0 km/h (5 Bft) 97,87 %
05.04.2021 17:14 3,2 C 3,9 C 0,6 C 79 % 1012,5 hPa 0,0 l/m 0 min 0 min 183 W/m 19,3 km/h (3 Bft) 97,87 %
05.04.2021 17:16 3,1 C 3,9 C 0,6 C 79 % 1012,5 hPa 0,0 l/m 0 min 0 min 119 W/m 16,1 km/h (3 Bft) 97,87 %
05.04.2021 17:18 3,1 C 6,1 C 0,6 C 79 % 1012,5 hPa 0,0 l/m 2 min 0 min 225 W/m 19,3 km/h (3 Bft) 97,83 %
05.04.2021 17:20 3,3 C 7,2 C 1,1 C 79 % 1012,5 hPa 0,0 l/m 2 min 0 min 463 W/m 25,7 km/h (4 Bft) 97,87 %
05.04.2021 17:22 3,4 C 7,8 C 1,1 C 79 % 1012,4 hPa 0,0 l/m 2 min 0 min 389 W/m 19,3 km/h (3 Bft) 95,74 %
05.04.2021 17:24 3,5 C 7,2 C 1,7 C 78 % 1012,5 hPa 0,0 l/m 2 min 0 min 418 W/m 22,5 km/h (4 Bft) 97,87 %
05.04.2021 17:26 3,7 C 7,2 C 1,7 C 77 % 1012,5 hPa 0,0 l/m 2 min 0 min 377 W/m 19,3 km/h (3 Bft) 97,87 %
05.04.2021 17:28 3,9 C 5,6 C 1,7 C 76 % 1012,5 hPa 0,0 l/m 2 min 0 min 217 W/m 22,5 km/h (4 Bft) 95,74 %
05.04.2021 17:30 3,9 C 5,0 C 1,7 C 74 % 1012,4 hPa 0,0 l/m 0 min 0 min 107 W/m 29,0 km/h (5 Bft) 100,00 %
05.04.2021 17:32 3,9 C 4,4 C 1,7 C 71 % 1012,5 hPa 0,0 l/m 0 min 0 min 72 W/m 35,4 km/h (5 Bft) 97,92 %
05.04.2021 17:34 3,8 C 3,9 C 1,1 C 70 % 1012,6 hPa 0,0 l/m 0 min 0 min 73 W/m 25,7 km/h (4 Bft) 100,00 %
05.04.2021 17:36 3,8 C 3,9 C 1,1 C 69 % 1012,5 hPa 0,0 l/m 0 min 0 min 122 W/m 32,2 km/h (5 Bft) 95,74 %
05.04.2021 17:38 3,8 C 5,0 C 1,1 C 71 % 1012,6 hPa 0,0 l/m 2 min 0 min 235 W/m 25,7 km/h (4 Bft) 97,92 %
05.04.2021 17:40 3,8 C 6,1 C 1,1 C 72 % 1012,7 hPa 0,0 l/m 2 min 0 min 391 W/m 19,3 km/h (3 Bft) 100,00 %
05.04.2021 17:42 3,8 C 7,2 C 1,1 C 73 % 1012,7 hPa 0,0 l/m 2 min 0 min 321 W/m 22,5 km/h (4 Bft) 97,87 %
05.04.2021 17:44 3,9 C 7,8 C 1,7 C 73 % 1012,7 hPa 0,0 l/m 2 min 0 min 396 W/m 29,0 km/h (5 Bft) 97,87 %
05.04.2021 17:46 4,0 C 8,3 C 1,7 C 73 % 1012,7 hPa 0,0 l/m 2 min 0 min 400 W/m 19,3 km/h (3 Bft) 100,00 %
05.04.2021 17:48 4,1 C 7,8 C 2,3 C 73 % 1012,6 hPa 0,0 l/m 2 min 0 min 424 W/m 29,0 km/h (5 Bft) 100,00 %
05.04.2021 17:50 4,2 C 8,3 C 2,3 C 73 % 1012,6 hPa 0,0 l/m 2 min 0 min 480 W/m 25,7 km/h (4 Bft) 97,87 %
05.04.2021 17:52 4,3 C 8,3 C 2,3 C 73 % 1012,6 hPa 0,0 l/m 2 min 0 min 366 W/m 22,5 km/h (4 Bft) 95,65 %
05.04.2021 17:54 4,4 C 8,3 C 2,3 C 74 % 1012,7 hPa 0,0 l/m 2 min 0 min 493 W/m 12,9 km/h (3 Bft) 97,87 %
05.04.2021 17:56 4,5 C 8,9 C 2,8 C 75 % 1012,8 hPa 0,0 l/m 2 min 0 min 472 W/m 19,3 km/h (3 Bft) 97,87 %
05.04.2021 17:58 4,6 C 7,8 C 2,8 C 75 % 1013,0 hPa 0,0 l/m 2 min 0 min 479 W/m 32,2 km/h (5 Bft) 97,87 %
05.04.2021 18:00 4,6 C 7,2 C 2,8 C 73 % 1013,1 hPa 0,0 l/m 2 min 0 min 450 W/m 35,4 km/h (5 Bft) 95,74 %
05.04.2021 18:02 4,6 C 7,2 C 2,8 C 74 % 1013,0 hPa 0,0 l/m 2 min 0 min 341 W/m 22,5 km/h (4 Bft) 95,74 %
05.04.2021 18:04 4,5 C 7,8 C 2,8 C 75 % 1013,0 hPa 0,0 l/m 2 min 0 min 442 W/m 25,7 km/h (4 Bft) 97,87 %
05.04.2021 18:08 4,4 C 8,3 C 2,8 C 72 % 1013,1 hPa 0,0 l/m 4 min 0 min 326 W/m 41,8 km/h (6 Bft) 97,85 %
05.04.2021 18:10 4,4 C 9,4 C 2,8 C 73 % 1013,1 hPa 0,0 l/m 2 min 0 min 441 W/m 29,0 km/h (5 Bft) 97,87 %
05.04.2021 18:12 4,4 C 9,4 C 2,8 C 74 % 1013,1 hPa 0,0 l/m 2 min 0 min 411 W/m 25,7 km/h (4 Bft) 97,87 %
05.04.2021 18:14 4,4 C 9,4 C 2,8 C 74 % 1013,1 hPa 0,0 l/m 2 min 0 min 398 W/m 32,2 km/h (5 Bft) 97,87 %
05.04.2021 18:16 4,4 C 10,0 C 2,8 C 75 % 1013,1 hPa 0,0 l/m 2 min 0 min 380 W/m 29,0 km/h (5 Bft) 97,83 %
05.04.2021 18:18 4,3 C 8,3 C 2,3 C 76 % 1013,1 hPa 0,0 l/m 2 min 0 min 292 W/m 25,7 km/h (4 Bft) 97,87 %
05.04.2021 18:20 4,3 C 9,4 C 2,3 C 76 % 1013,1 hPa 0,0 l/m 2 min 0 min 263 W/m 25,7 km/h (4 Bft) 95,74 %
05.04.2021 18:22 4,2 C 9,4 C 2,3 C 77 % 1013,0 hPa 0,0 l/m 2 min 0 min 345 W/m 25,7 km/h (4 Bft) 97,87 %
05.04.2021 18:24 4,1 C 10,0 C 2,8 C 77 % 1013,0 hPa 0,0 l/m 2 min 0 min 324 W/m 19,3 km/h (3 Bft) 97,87 %
05.04.2021 18:26 4,2 C 10,0 C 2,8 C 77 % 1013,0 hPa 0,0 l/m 2 min 0 min 324 W/m 12,9 km/h (3 Bft) 97,87 %
05.04.2021 18:28 4,3 C 9,4 C 2,8 C 78 % 1013,0 hPa 0,0 l/m 2 min 0 min 276 W/m 12,9 km/h (3 Bft) 97,83 %
05.04.2021 18:30 4,3 C 8,3 C 2,8 C 78 % 1013,0 hPa 0,0 l/m 2 min 0 min 144 W/m 9,7 km/h (2 Bft) 97,87 %
05.04.2021 18:32 4,3 C 6,7 C 2,8 C 78 % 1013,1 hPa 0,0 l/m 0 min 0 min 119 W/m 16,1 km/h (3 Bft) 97,92 %
05.04.2021 18:34 4,3 C 5,6 C 2,3 C 78 % 1013,0 hPa 0,0 l/m 0 min 0 min 93 W/m 22,5 km/h (4 Bft) 97,87 %
05.04.2021 18:36 4,1 C 5,0 C 2,3 C 76 % 1013,0 hPa 0,0 l/m 0 min 0 min 60 W/m 19,3 km/h (3 Bft) 94,29 %
05.04.2021 18:38 4,0 C 3,9 C 1,7 C 75 % 1013,0 hPa 0,0 l/m 0 min 0 min 44 W/m 16,1 km/h (3 Bft) 98,31 %
05.04.2021 18:40 3,9 C 3,9 C 1,7 C 74 % 1013,0 hPa 0,0 l/m 0 min 0 min 48 W/m 16,1 km/h (3 Bft) 97,22 %
05.04.2021 18:42 3,8 C 3,3 C 1,1 C 74 % 1013,1 hPa 0,0 l/m 0 min 0 min 72 W/m 22,5 km/h (4 Bft) 97,83 %
05.04.2021 18:44 3,7 C 3,3 C 1,1 C 75 % 1013,1 hPa 0,0 l/m 0 min 0 min 95 W/m 16,1 km/h (3 Bft) 97,87 %
05.04.2021 18:46 3,6 C 3,3 C 1,1 C 75 % 1013,2 hPa 0,0 l/m 0 min 0 min 79 W/m 19,3 km/h (3 Bft) 97,87 %
05.04.2021 18:48 3,6 C 3,3 C 1,1 C 75 % 1013,2 hPa 0,0 l/m 0 min 0 min 43 W/m 16,1 km/h (3 Bft) 97,87 %
05.04.2021 18:50 3,6 C 3,3 C 1,1 C 76 % 1013,2 hPa 0,0 l/m 0 min 0 min 21 W/m 19,3 km/h (3 Bft) 97,87 %
05.04.2021 18:52 3,6 C 3,3 C 1,1 C 75 % 1013,2 hPa 0,0 l/m 0 min 0 min 15 W/m 12,9 km/h (3 Bft) 98,15 %
05.04.2021 18:54 3,5 C 3,3 C 1,1 C 75 % 1013,2 hPa 0,0 l/m 0 min 0 min 16 W/m 25,7 km/h (4 Bft) 97,87 %
05.04.2021 18:56 3,5 C 2,8 C 0,6 C 75 % 1013,2 hPa 0,0 l/m 0 min 0 min 16 W/m 19,3 km/h (3 Bft) 100,00 %
05.04.2021 18:58 3,4 C 2,8 C 0,6 C 76 % 1013,3 hPa 0,0 l/m 0 min 0 min 18 W/m 12,9 km/h (3 Bft) 95,74 %
05.04.2021 19:00 3,4 C 3,3 C 0,6 C 77 % 1013,2 hPa 0,0 l/m 0 min 0 min 20 W/m 16,1 km/h (3 Bft) 87,50 %
05.04.2021 19:02 3,4 C 3,3 C 0,6 C 78 % 1013,3 hPa 0,0 l/m 0 min 0 min 21 W/m 16,1 km/h (3 Bft) 52,17 %
05.04.2021 19:04 3,4 C 2,8 C 0,0 C 78 % 1013,4 hPa 0,0 l/m 0 min 0 min 23 W/m 25,7 km/h (4 Bft) 75,00 %
05.04.2021 19:06 3,3 C 2,8 C -0,5 C 79 % 1013,4 hPa 0,0 l/m 0 min 0 min 39 W/m 29,0 km/h (5 Bft) 85,11 %
05.04.2021 19:08 3,1 C 2,8 C 0,0 C 80 % 1013,6 hPa 0,0 l/m 0 min 0 min 79 W/m 29,0 km/h (5 Bft) 61,70 %
05.04.2021 19:10 3,1 C 2,8 C 0,0 C 81 % 1013,6 hPa 0,0 l/m 0 min 0 min 77 W/m 32,2 km/h (5 Bft) 87,23 %
05.04.2021 19:12 3,0 C 2,8 C 0,0 C 82 % 1013,6 hPa 0,0 l/m 0 min 0 min 53 W/m 22,5 km/h (4 Bft) 91,30 %
05.04.2021 19:14 3,0 C 2,8 C 0,0 C 82 % 1013,6 hPa 0,0 l/m 0 min 0 min 40 W/m 16,1 km/h (3 Bft) 95,74 %
05.04.2021 19:16 2,9 C 2,8 C 0,0 C 82 % 1013,5 hPa 0,0 l/m 0 min 0 min 31 W/m 22,5 km/h (4 Bft) 91,49 %
05.04.2021 19:18 2,9 C 2,8 C 0,0 C 82 % 1013,7 hPa 0,0 l/m 0 min 0 min 14 W/m 25,7 km/h (4 Bft) 80,85 %
05.04.2021 19:20 2,8 C 2,2 C -0,5 C 83 % 1013,8 hPa 0,0 l/m 0 min 2 min 20 W/m 16,1 km/h (3 Bft) 72,34 %
05.04.2021 19:22 2,8 C 2,2 C -0,5 C 83 % 1013,8 hPa 0,0 l/m 0 min 2 min 13 W/m 29,0 km/h (5 Bft) 75,47 %
05.04.2021 19:24 2,6 C 2,2 C -0,5 C 83 % 1013,7 hPa 0,0 l/m 0 min 2 min 12 W/m 19,3 km/h (3 Bft) 87,23 %
05.04.2021 19:26 2,6 C 1,7 C -1,1 C 84 % 1013,7 hPa 0,0 l/m 0 min 2 min 12 W/m 19,3 km/h (3 Bft) 87,23 %
05.04.2021 19:28 2,5 C 1,7 C -1,1 C 84 % 1013,7 hPa 0,0 l/m 0 min 0 min 15 W/m 16,1 km/h (3 Bft) 93,48 %
05.04.2021 19:30 2,4 C 1,7 C -1,1 C 85 % 1013,6 hPa 0,0 l/m 0 min 0 min 16 W/m 12,9 km/h (3 Bft) 97,87 %
05.04.2021 19:32 2,3 C 1,7 C -1,1 C 85 % 1013,7 hPa 0,0 l/m 0 min 0 min 18 W/m 12,9 km/h (3 Bft) 97,92 %
05.04.2021 19:34 2,2 C 1,7 C -1,1 C 86 % 1013,7 hPa 0,0 l/m 0 min 0 min 17 W/m 16,1 km/h (3 Bft) 97,87 %
05.04.2021 19:36 2,1 C 1,7 C -1,1 C 86 % 1013,7 hPa 0,0 l/m 0 min 0 min 17 W/m 9,7 km/h (2 Bft) 97,87 %
05.04.2021 19:38 2,1 C 1,7 C -1,1 C 86 % 1013,7 hPa 0,0 l/m 0 min 0 min 16 W/m 9,7 km/h (2 Bft) 95,74 %
05.04.2021 19:40 2,1 C 1,7 C -1,1 C 87 % 1013,7 hPa 0,0 l/m 0 min 0 min 15 W/m 22,5 km/h (4 Bft) 97,83 %
05.04.2021 19:42 2,0 C 1,7 C -1,1 C 87 % 1013,7 hPa 0,0 l/m 0 min 0 min 18 W/m 25,7 km/h (4 Bft) 97,92 %
05.04.2021 19:44 2,0 C 1,7 C -1,1 C 87 % 1013,8 hPa 0,0 l/m 0 min 0 min 14 W/m 16,1 km/h (3 Bft) 97,87 %
05.04.2021 19:46 1,9 C 1,7 C -1,1 C 88 % 1013,7 hPa 0,0 l/m 0 min 0 min 19 W/m 22,5 km/h (4 Bft) 94,44 %
05.04.2021 19:48 1,9 C 1,1 C -1,1 C 88 % 1013,7 hPa 0,0 l/m 0 min 0 min 22 W/m 19,3 km/h (3 Bft) 97,96 %
05.04.2021 19:50 1,9 C 1,1 C -1,1 C 89 % 1013,7 hPa 0,0 l/m 2 min 0 min 28 W/m 19,3 km/h (3 Bft) 97,87 %
05.04.2021 19:52 1,8 C 1,1 C -1,1 C 89 % 1013,7 hPa 0,0 l/m 2 min 0 min 34 W/m 9,7 km/h (2 Bft) 97,87 %
05.04.2021 19:54 1,8 C 1,1 C -1,1 C 89 % 1013,8 hPa 0,0 l/m 0 min 0 min 19 W/m 19,3 km/h (3 Bft) 93,48 %
05.04.2021 19:56 1,8 C 1,1 C -1,1 C 89 % 1013,7 hPa 0,0 l/m 0 min 0 min 13 W/m 12,9 km/h (3 Bft) 97,87 %
05.04.2021 19:58 1,8 C 1,1 C -1,1 C 90 % 1013,7 hPa 0,0 l/m 0 min 0 min 11 W/m 12,9 km/h (3 Bft) 93,62 %
05.04.2021 20:00 1,7 C 1,1 C -1,1 C 90 % 1013,7 hPa 0,0 l/m 0 min 0 min 10 W/m 16,1 km/h (3 Bft) 97,87 %
05.04.2021 20:02 1,7 C 1,1 C -1,1 C 90 % 1013,7 hPa 0,0 l/m 0 min 0 min 9 W/m 9,7 km/h (2 Bft) 95,74 %
05.04.2021 20:04 1,6 C 1,1 C -1,1 C 90 % 1013,7 hPa 0,0 l/m 0 min 0 min 8 W/m 19,3 km/h (3 Bft) 95,74 %
05.04.2021 20:06 1,6 C 1,1 C -1,1 C 90 % 1013,7 hPa 0,0 l/m 0 min 0 min 7 W/m 9,7 km/h (2 Bft) 95,65 %
05.04.2021 20:08 1,6 C 1,1 C -1,1 C 91 % 1013,7 hPa 0,0 l/m 0 min 0 min 7 W/m 12,9 km/h (3 Bft) 97,92 %
05.04.2021 20:10 1,6 C 1,1 C -1,1 C 91 % 1013,7 hPa 0,0 l/m 0 min 0 min 7 W/m 9,7 km/h (2 Bft) 97,87 %
05.04.2021 20:12 1,6 C 1,1 C -1,1 C 91 % 1013,7 hPa 0,0 l/m 0 min 0 min 5 W/m 9,7 km/h (2 Bft) 97,87 %
05.04.2021 20:14 1,7 C 1,1 C -1,1 C 91 % 1013,7 hPa 0,0 l/m 0 min 0 min 5 W/m 16,1 km/h (3 Bft) 95,74 %
05.04.2021 20:16 1,7 C 1,7 C -1,1 C 90 % 1013,6 hPa 0,0 l/m 0 min 0 min 1 W/m 19,3 km/h (3 Bft) 97,83 %
05.04.2021 20:18 1,7 C 1,7 C -1,1 C 90 % 1013,7 hPa 0,0 l/m 0 min 0 min 0 W/m 9,7 km/h (2 Bft) 97,87 %
05.04.2021 20:20 1,7 C 1,7 C -1,1 C 90 % 1013,7 hPa 0,0 l/m 0 min 0 min 0 W/m 16,1 km/h (3 Bft) 97,92 %
05.04.2021 20:22 1,8 C 1,7 C -1,1 C 89 % 1013,7 hPa 0,0 l/m 0 min 0 min 0 W/m 16,1 km/h (3 Bft) 97,87 %
05.04.2021 20:24 1,8 C 1,7 C -1,1 C 89 % 1013,7 hPa 0,0 l/m 0 min 0 min 0 W/m 16,1 km/h (3 Bft) 97,87 %
05.04.2021 20:26 1,8 C 1,7 C -1,1 C 88 % 1013,6 hPa 0,0 l/m 0 min 0 min 0 W/m 12,9 km/h (3 Bft) 97,87 %
05.04.2021 20:28 1,8 C 1,7 C -1,1 C 88 % 1013,7 hPa 0,0 l/m 0 min 0 min 0 W/m 12,9 km/h (3 Bft) 95,65 %
05.04.2021 20:30 1,8 C 1,7 C -1,1 C 87 % 1013,7 hPa 0,0 l/m 0 min 0 min 0 W/m 16,1 km/h (3 Bft) 97,96 %
05.04.2021 20:32 1,9 C 1,1 C -1,1 C 87 % 1013,8 hPa 0,0 l/m 0 min 0 min 0 W/m 16,1 km/h (3 Bft) 97,87 %
05.04.2021 20:34 1,8 C 1,1 C -1,1 C 87 % 1013,9 hPa 0,0 l/m 0 min 0 min 0 W/m 12,9 km/h (3 Bft) 97,83 %
05.04.2021 20:36 1,9 C 1,1 C -1,1 C 86 % 1013,9 hPa 0,0 l/m 0 min 0 min 0 W/m 19,3 km/h (3 Bft) 97,87 %
05.04.2021 20:38 1,8 C 1,1 C -1,1 C 86 % 1013,9 hPa 0,0 l/m 0 min 0 min 0 W/m 12,9 km/h (3 Bft) 93,62 %
05.04.2021 20:40 1,8 C 1,1 C -1,1 C 86 % 1014,0 hPa 0,0 l/m 0 min 0 min 0 W/m 16,1 km/h (3 Bft) 95,74 %
05.04.2021 20:42 1,8 C 1,1 C -1,1 C 85 % 1014,0 hPa 0,0 l/m 0 min 0 min 0 W/m 19,3 km/h (3 Bft) 95,74 %
05.04.2021 20:44 1,8 C 1,1 C -1,1 C 85 % 1014,1 hPa 0,0 l/m 0 min 0 min 0 W/m 12,9 km/h (3 Bft) 54,35 %
05.04.2021 20:46 1,8 C 1,1 C -1,1 C 85 % 1014,1 hPa 0,0 l/m 0 min 2 min 0 W/m 16,1 km/h (3 Bft) 93,48 %
05.04.2021 20:48 1,8 C 1,1 C -1,1 C 85 % 1014,1 hPa 0,0 l/m 0 min 0 min 0 W/m 19,3 km/h (3 Bft) 95,74 %
05.04.2021 20:50 1,8 C 1,1 C -1,1 C 85 % 1014,2 hPa 0,0 l/m 0 min 0 min 0 W/m 16,1 km/h (3 Bft) 93,62 %
05.04.2021 20:52 1,8 C 1,1 C -1,1 C 85 % 1014,2 hPa 0,0 l/m 0 min 0 min 0 W/m 22,5 km/h (4 Bft) 91,49 %
05.04.2021 20:54 1,7 C 1,1 C -1,1 C 85 % 1014,3 hPa 0,0 l/m 0 min 0 min 0 W/m 16,1 km/h (3 Bft) 95,74 %
05.04.2021 20:56 1,7 C 1,1 C -1,1 C 85 % 1014,3 hPa 0,0 l/m 0 min 2 min 0 W/m 16,1 km/h (3 Bft) 93,62 %
05.04.2021 20:58 1,6 C 1,1 C -1,1 C 85 % 1014,4 hPa 0,0 l/m 0 min 0 min 0 W/m 12,9 km/h (3 Bft) 95,74 %
05.04.2021 21:00 1,6 C 1,1 C -1,1 C 85 % 1014,3 hPa 0,0 l/m 0 min 0 min 0 W/m 12,9 km/h (3 Bft) 93,48 %
05.04.2021 21:02 1,6 C 1,1 C -1,1 C 85 % 1014,4 hPa 0,0 l/m 0 min 0 min 0 W/m 16,1 km/h (3 Bft) 93,62 %
05.04.2021 21:04 1,5 C 1,1 C -1,1 C 85 % 1014,4 hPa 0,0 l/m 0 min 0 min 0 W/m 9,7 km/h (2 Bft) 95,74 %
05.04.2021 21:06 1,5 C 1,1 C -1,1 C 85 % 1014,4 hPa 0,0 l/m 0 min 0 min 0 W/m 6,4 km/h (2 Bft) 95,74 %
05.04.2021 21:08 1,5 C 0,6 C -1,1 C 85 % 1014,4 hPa 0,0 l/m 0 min 0 min 0 W/m 9,7 km/h (2 Bft) 95,74 %
05.04.2021 21:10 1,5 C 0,6 C -1,1 C 85 % 1014,4 hPa 0,0 l/m 0 min 0 min 0 W/m 6,4 km/h (2 Bft) 93,48 %
05.04.2021 21:12 1,4 C 0,6 C -1,6 C 86 % 1014,4 hPa 0,0 l/m 0 min 0 min 0 W/m 9,7 km/h (2 Bft) 95,74 %
05.04.2021 21:14 1,4 C 0,6 C -1,6 C 86 % 1014,3 hPa 0,0 l/m 0 min 0 min 0 W/m 12,9 km/h (3 Bft) 97,87 %
05.04.2021 21:16 1,4 C 0,6 C -1,6 C 86 % 1014,3 hPa 0,0 l/m 0 min 0 min 0 W/m 6,4 km/h (2 Bft) 97,87 %
05.04.2021 21:18 1,3 C 0,6 C -1,6 C 86 % 1014,3 hPa 0,0 l/m 0 min 0 min 0 W/m 9,7 km/h (2 Bft) 97,87 %
05.04.2021 21:20 1,3 C 0,6 C -1,1 C 86 % 1014,2 hPa 0,0 l/m 0 min 0 min 0 W/m 6,4 km/h (2 Bft) 97,87 %
05.04.2021 21:22 1,3 C 0,6 C -1,1 C 86 % 1014,2 hPa 0,0 l/m 0 min 0 min 0 W/m 12,9 km/h (3 Bft) 97,83 %
05.04.2021 21:24 1,3 C 0,6 C -1,6 C 86 % 1014,3 hPa 0,0 l/m 0 min 0 min 0 W/m 6,4 km/h (2 Bft) 97,87 %
05.04.2021 21:26 1,3 C 0,6 C -1,6 C 86 % 1014,3 hPa 0,0 l/m 0 min 0 min 0 W/m 6,4 km/h (2 Bft) 100,00 %
05.04.2021 21:28 1,3 C 0,6 C -1,1 C 86 % 1014,3 hPa 0,0 l/m 0 min 0 min 0 W/m 6,4 km/h (2 Bft) 95,74 %
05.04.2021 21:30 1,2 C 0,6 C -1,6 C 86 % 1014,3 hPa 0,0 l/m 0 min 0 min 0 W/m 16,1 km/h (3 Bft) 95,74 %
05.04.2021 21:32 1,1 C 0,6 C -1,1 C 86 % 1014,3 hPa 0,0 l/m 0 min 0 min 0 W/m 6,4 km/h (2 Bft) 95,74 %
05.04.2021 21:34 1,1 C 0,6 C -1,1 C 86 % 1014,3 hPa 0,0 l/m 0 min 0 min 0 W/m 16,1 km/h (3 Bft) 97,83 %
05.04.2021 21:36 1,1 C 0,6 C -1,1 C 86 % 1014,2 hPa 0,0 l/m 0 min 0 min 0 W/m 12,9 km/h (3 Bft) 95,74 %
05.04.2021 21:38 1,1 C 0,6 C -1,1 C 86 % 1014,2 hPa 0,0 l/m 0 min 0 min 0 W/m 9,7 km/h (2 Bft) 97,87 %
05.04.2021 21:40 1,1 C 0,6 C -1,6 C 86 % 1014,1 hPa 0,0 l/m 0 min 0 min 0 W/m 16,1 km/h (3 Bft) 95,74 %
05.04.2021 21:42 1,1 C 0,6 C -1,1 C 86 % 1014,0 hPa 0,0 l/m 0 min 0 min 0 W/m 12,9 km/h (3 Bft) 97,87 %
05.04.2021 21:44 1,1 C 0,6 C -1,1 C 86 % 1014,1 hPa 0,0 l/m 0 min 0 min 0 W/m 12,9 km/h (3 Bft) 97,87 %
05.04.2021 21:46 1,1 C 0,6 C -1,1 C 86 % 1014,0 hPa 0,0 l/m 0 min 0 min 0 W/m 16,1 km/h (3 Bft) 97,83 %
05.04.2021 21:48 1,1 C 0,6 C -1,1 C 86 % 1014,0 hPa 0,0 l/m 0 min 0 min 0 W/m 6,4 km/h (2 Bft) 97,87 %
05.04.2021 21:50 1,1 C 0,6 C -1,1 C 86 % 1013,9 hPa 0,0 l/m 0 min 0 min 0 W/m 6,4 km/h (2 Bft) 95,74 %
05.04.2021 21:52 1,0 C 0,6 C -1,1 C 86 % 1014,0 hPa 0,0 l/m 0 min 0 min 0 W/m 9,7 km/h (2 Bft) 97,87 %
05.04.2021 21:54 1,0 C 0,6 C -1,1 C 86 % 1013,9 hPa 0,0 l/m 0 min 0 min 0 W/m 9,7 km/h (2 Bft) 97,87 %
05.04.2021 21:56 1,0 C 0,6 C -1,1 C 86 % 1014,0 hPa 0,0 l/m 0 min 0 min 0 W/m 12,9 km/h (3 Bft) 97,87 %
05.04.2021 21:58 1,0 C 0,6 C -1,1 C 86 % 1013,9 hPa 0,0 l/m 0 min 0 min 0 W/m 16,1 km/h (3 Bft) 97,83 %
05.04.2021 22:00 1,0 C 0,6 C -1,1 C 87 % 1013,9 hPa 0,0 l/m 0 min 0 min 0 W/m 12,9 km/h (3 Bft) 97,87 %
05.04.2021 22:02 1,0 C 0,6 C -1,1 C 86 % 1013,9 hPa 0,0 l/m 0 min 0 min 0 W/m 12,9 km/h (3 Bft) 97,87 %
05.04.2021 22:04 0,9 C 0,6 C -1,1 C 87 % 1013,9 hPa 0,0 l/m 0 min 0 min 0 W/m 12,9 km/h (3 Bft) 97,87 %
05.04.2021 22:06 0,9 C 0,6 C -1,6 C 87 % 1013,9 hPa 0,0 l/m 0 min 0 min 0 W/m 9,7 km/h (2 Bft) 95,74 %
05.04.2021 22:08 0,9 C 0,0 C -1,6 C 87 % 1013,8 hPa 0,0 l/m 0 min 0 min 0 W/m 16,1 km/h (3 Bft) 98,11 %
05.04.2021 22:10 0,9 C 0,0 C -1,6 C 87 % 1013,7 hPa 0,0 l/m 0 min 0 min 0 W/m 22,5 km/h (4 Bft) 97,14 %
05.04.2021 22:12 0,8 C 0,0 C -1,6 C 87 % 1013,7 hPa 0,0 l/m 0 min 0 min 0 W/m 9,7 km/h (2 Bft) 93,62 %
05.04.2021 22:14 0,8 C 0,0 C -1,6 C 87 % 1013,8 hPa 0,0 l/m 0 min 0 min 0 W/m 16,1 km/h (3 Bft) 97,83 %
05.04.2021 22:16 0,8 C 0,0 C -1,6 C 87 % 1013,7 hPa 0,0 l/m 0 min 0 min 0 W/m 22,5 km/h (4 Bft) 97,87 %
05.04.2021 22:18 0,8 C 0,0 C -1,6 C 87 % 1013,7 hPa 0,0 l/m 0 min 0 min 0 W/m 12,9 km/h (3 Bft) 100,00 %
05.04.2021 22:20 0,8 C 0,0 C -1,6 C 87 % 1013,7 hPa 0,0 l/m 0 min 0 min 0 W/m 12,9 km/h (3 Bft) 100,00 %
05.04.2021 22:22 0,8 C 0,0 C -1,6 C 87 % 1013,7 hPa 0,0 l/m 0 min 0 min 0 W/m 12,9 km/h (3 Bft) 97,96 %
05.04.2021 22:24 0,8 C 0,0 C -1,6 C 88 % 1013,7 hPa 0,0 l/m 0 min 0 min 0 W/m 16,1 km/h (3 Bft) 100,00 %
05.04.2021 22:26 0,7 C 0,0 C -1,6 C 88 % 1013,6 hPa 0,0 l/m 0 min 0 min 0 W/m 16,1 km/h (3 Bft) 100,00 %
05.04.2021 22:28 0,7 C 0,0 C -1,6 C 88 % 1013,5 hPa 0,0 l/m 0 min 0 min 0 W/m 16,1 km/h (3 Bft) 100,00 %
05.04.2021 22:30 0,7 C 0,0 C -1,6 C 88 % 1013,5 hPa 0,0 l/m 0 min 0 min 0 W/m 16,1 km/h (3 Bft) 100,00 %
05.04.2021 22:32 0,6 C 0,0 C -1,6 C 88 % 1013,5 hPa 0,0 l/m 0 min 0 min 0 W/m 19,3 km/h (3 Bft) 100,00 %
05.04.2021 22:34 0,7 C 0,0 C -1,6 C 88 % 1013,5 hPa 0,0 l/m 0 min 0 min 0 W/m 19,3 km/h (3 Bft) 100,00 %
05.04.2021 22:36 0,7 C 0,6 C -1,6 C 88 % 1013,5 hPa 0,0 l/m 0 min 0 min 0 W/m 12,9 km/h (3 Bft) 100,00 %
05.04.2021 22:38 0,8 C 0,6 C -1,1 C 88 % 1013,5 hPa 0,0 l/m 0 min 0 min 0 W/m 19,3 km/h (3 Bft) 97,87 %
05.04.2021 22:40 0,8 C 0,6 C -1,1 C 88 % 1013,4 hPa 0,0 l/m 0 min 0 min 0 W/m 22,5 km/h (4 Bft) 100,00 %
05.04.2021 22:42 0,8 C 0,6 C -1,1 C 88 % 1013,4 hPa 0,0 l/m 0 min 0 min 0 W/m 12,9 km/h (3 Bft) 100,00 %
05.04.2021 22:44 0,8 C 0,6 C -1,1 C 88 % 1013,4 hPa 0,0 l/m 0 min 0 min 0 W/m 12,9 km/h (3 Bft) 100,00 %
05.04.2021 22:46 0,8 C 0,0 C -1,1 C 88 % 1013,3 hPa 0,0 l/m 0 min 0 min 0 W/m 19,3 km/h (3 Bft) 97,87 %
05.04.2021 22:48 0,8 C 0,0 C -1,1 C 88 % 1013,4 hPa 0,0 l/m 0 min 0 min 0 W/m 16,1 km/h (3 Bft) 100,00 %
05.04.2021 22:50 0,8 C 0,6 C -1,1 C 88 % 1013,4 hPa 0,0 l/m 0 min 0 min 0 W/m 25,7 km/h (4 Bft) 97,83 %
05.04.2021 22:52 0,8 C 0,6 C -1,1 C 88 % 1013,4 hPa 0,0 l/m 0 min 0 min 0 W/m 16,1 km/h (3 Bft) 97,87 %
05.04.2021 22:54 0,8 C 0,6 C -1,1 C 88 % 1013,4 hPa 0,0 l/m 0 min 0 min 0 W/m 16,1 km/h (3 Bft) 93,75 %
05.04.2021 22:56 0,8 C 0,6 C -1,1 C 88 % 1013,4 hPa 0,0 l/m 0 min 0 min 0 W/m 12,9 km/h (3 Bft) 95,65 %
05.04.2021 22:58 0,8 C 0,6 C -1,1 C 88 % 1013,3 hPa 0,0 l/m 0 min 0 min 0 W/m 12,9 km/h (3 Bft) 95,74 %
05.04.2021 23:00 0,8 C 0,6 C -1,1 C 88 % 1013,3 hPa 0,0 l/m 0 min 0 min 0 W/m 16,1 km/h (3 Bft) 95,74 %
05.04.2021 23:02 0,8 C 0,6 C -1,1 C 88 % 1013,4 hPa 0,0 l/m 0 min 0 min 0 W/m 16,1 km/h (3 Bft) 93,62 %
05.04.2021 23:04 0,9 C 0,6 C -1,1 C 88 % 1013,3 hPa 0,0 l/m 0 min 0 min 0 W/m 12,9 km/h (3 Bft) 95,74 %
05.04.2021 23:06 0,9 C 0,6 C -1,1 C 88 % 1013,5 hPa 0,0 l/m 0 min 0 min 0 W/m 22,5 km/h (4 Bft) 95,74 %
05.04.2021 23:08 0,9 C 0,6 C -1,1 C 88 % 1013,3 hPa 0,0 l/m 0 min 0 min 0 W/m 16,1 km/h (3 Bft) 94,34 %
05.04.2021 23:10 0,9 C 0,6 C -1,1 C 88 % 1013,4 hPa 0,0 l/m 0 min 0 min 0 W/m 16,1 km/h (3 Bft) 94,29 %
05.04.2021 23:12 0,9 C 0,6 C -1,1 C 88 % 1013,3 hPa 0,0 l/m 0 min 0 min 0 W/m 16,1 km/h (3 Bft) 93,75 %
05.04.2021 23:14 1,0 C 0,6 C -1,1 C 88 % 1013,3 hPa 0,0 l/m 0 min 0 min 0 W/m 16,1 km/h (3 Bft) 95,65 %
05.04.2021 23:16 1,0 C 0,6 C -1,1 C 88 % 1013,2 hPa 0,0 l/m 0 min 0 min 0 W/m 16,1 km/h (3 Bft) 93,62 %
05.04.2021 23:18 1,0 C 0,6 C -1,1 C 88 % 1013,1 hPa 0,0 l/m 0 min 0 min 0 W/m 19,3 km/h (3 Bft) 95,83 %
05.04.2021 23:20 1,0 C 0,6 C -1,1 C 88 % 1013,1 hPa 0,0 l/m 0 min 0 min 0 W/m 19,3 km/h (3 Bft) 95,83 %
05.04.2021 23:22 1,0 C 0,6 C -1,1 C 88 % 1013,0 hPa 0,0 l/m 0 min 0 min 0 W/m 9,7 km/h (2 Bft) 95,92 %
05.04.2021 23:24 1,0 C 0,6 C -1,1 C 88 % 1013,0 hPa 0,0 l/m 0 min 0 min 0 W/m 19,3 km/h (3 Bft) 93,48 %
05.04.2021 23:26 1,0 C 0,6 C -1,1 C 88 % 1013,0 hPa 0,0 l/m 0 min 0 min 0 W/m 22,5 km/h (4 Bft) 93,62 %
05.04.2021 23:28 1,0 C 0,6 C -1,1 C 88 % 1013,0 hPa 0,0 l/m 0 min 0 min 0 W/m 9,7 km/h (2 Bft) 95,74 %
05.04.2021 23:30 1,0 C 0,6 C -1,1 C 88 % 1013,0 hPa 0,0 l/m 0 min 0 min 0 W/m 19,3 km/h (3 Bft) 95,74 %
05.04.2021 23:32 1,0 C 0,6 C -1,1 C 88 % 1013,1 hPa 0,0 l/m 0 min 2 min 0 W/m 16,1 km/h (3 Bft) 97,87 %
05.04.2021 23:34 1,0 C 0,6 C -1,1 C 88 % 1012,9 hPa 0,0 l/m 0 min 0 min 0 W/m 25,7 km/h (4 Bft) 97,87 %
05.04.2021 23:36 1,0 C 0,6 C -1,1 C 88 % 1013,2 hPa 0,0 l/m 0 min 0 min 0 W/m 29,0 km/h (5 Bft) 97,87 %
05.04.2021 23:38 1,0 C 0,6 C -1,1 C 88 % 1013,0 hPa 0,0 l/m 0 min 0 min 0 W/m 22,5 km/h (4 Bft) 97,87 %
05.04.2021 23:40 1,0 C 0,6 C -1,1 C 88 % 1013,0 hPa 0,0 l/m 0 min 0 min 0 W/m 16,1 km/h (3 Bft) 97,87 %
05.04.2021 23:42 1,0 C 0,6 C -1,1 C 88 % 1012,9 hPa 0,0 l/m 0 min 0 min 0 W/m 12,9 km/h (3 Bft) 95,74 %
05.04.2021 23:44 1,0 C 0,6 C -1,1 C 88 % 1012,9 hPa 0,0 l/m 0 min 0 min 0 W/m 25,7 km/h (4 Bft) 95,65 %
05.04.2021 23:46 1,0 C 0,6 C -1,1 C 88 % 1012,9 hPa 0,0 l/m 0 min 0 min 0 W/m 19,3 km/h (3 Bft) 97,87 %
05.04.2021 23:48 1,0 C 0,6 C -1,1 C 88 % 1012,9 hPa 0,0 l/m 0 min 0 min 0 W/m 12,9 km/h (3 Bft) 100,00 %
05.04.2021 23:50 1,0 C 0,6 C -1,1 C 89 % 1013,0 hPa 0,0 l/m 0 min 0 min 0 W/m 16,1 km/h (3 Bft) 100,00 %
05.04.2021 23:52 0,9 C 0,6 C -1,1 C 89 % 1012,9 hPa 0,0 l/m 0 min 0 min 0 W/m 12,9 km/h (3 Bft) 97,87 %
05.04.2021 23:54 0,9 C 0,6 C -1,1 C 89 % 1012,9 hPa 0,0 l/m 0 min 0 min 0 W/m 19,3 km/h (3 Bft) 100,00 %
05.04.2021 23:56 0,9 C 0,6 C -1,1 C 90 % 1012,8 hPa 0,0 l/m 0 min 0 min 0 W/m 16,1 km/h (3 Bft) 100,00 %
05.04.2021 23:58 0,9 C 0,6 C -1,1 C 90 % 1012,9 hPa 0,0 l/m 0 min 0 min 0 W/m 16,1 km/h (3 Bft) 100,00 %
_ Min-Zeit 22:32 22:08 21:12 16:58 09:20 - - - - 00:00 19:02
Minimum _ 0,6 C 0,0 C -1,6 C 64 % 1006,1 hPa - - - - 3,2 km/h (1 Bft) 52,17 %
_ Max-Zeit 09:28 15:30 08:30 10:28 00:00 09:40 18:08 12:08 14:30 13:58 00:00
Maximum _ 6,4 C 11,1 C 3,9 C 94 % 1016,4 hPa 0,2 l/m 4 min 4 min 960 W/m 64,4 km/h
N-NW (8 Bft)
100,00 %
Durchschnitt _ 4,1 C 4,3 C 1,8 C 84 % 1011,2 hPa #1,6 l/m #3:46 h #3:38 h 215 W/m 21,8 km/h (4 Bft) 96,79 %
© 2021 W. Hausmann